Time,TemperatureF,DewpointF,PressureIn,WindDirection,WindDirectionDegrees,WindSpeedMPH,WindSpeedGustMPH,Humidity,HourlyPrecipIn,Conditions,Clouds,dailyrainin,SoftwareType,DateUTC
2013-03-21 00:01:00,59.0,40.4,29.94,East,85,1.0,3.0,50,0.00,,,0.00,Wunderground v.1.15,2013-03-21 05:01:00,
2013-03-21 00:02:00,58.9,40.3,29.94,East,86,1.0,3.0,50,0.00,,,0.00,Wunderground v.1.15,2013-03-21 05:02:00,
2013-03-21 00:04:00,58.9,40.3,29.94,East,86,1.0,3.0,50,0.00,,,0.00,Wunderground v.1.15,2013-03-21 05:04:00,
2013-03-21 00:09:00,58.7,40.1,29.94,East,86,1.0,4.0,50,0.00,,,0.00,Wunderground v.1.15,2013-03-21 05:09:00,
2013-03-21 00:10:00,58.7,40.6,29.94,East,86,1.0,1.0,51,0.00,,,0.00,Wunderground v.1.15,2013-03-21 05:10:00,
2013-03-21 00:13:00,58.6,40.5,29.94,East,86,0.0,4.0,51,0.00,,,0.00,Wunderground v.1.15,2013-03-21 05:13:00,
2013-03-21 00:14:00,58.6,40.5,29.94,East,86,0.0,4.0,51,0.00,,,0.00,Wunderground v.1.15,2013-03-21 05:14:00,
2013-03-21 00:19:00,58.3,40.7,29.93,East,86,0.0,4.0,52,0.00,,,0.00,Wunderground v.1.15,2013-03-21 05:19:00,
2013-03-21 00:21:00,58.3,40.7,29.93,East,86,0.0,2.0,52,0.00,,,0.00,Wunderground v.1.15,2013-03-21 05:21:00,
2013-03-21 00:23:00,58.3,40.7,29.93,East,86,0.0,2.0,52,0.00,,,0.00,Wunderground v.1.15,2013-03-21 05:23:00,
2013-03-21 00:24:00,58.3,40.7,29.93,East,86,0.0,2.0,52,0.00,,,0.00,Wunderground v.1.15,2013-03-21 05:24:00,
2013-03-21 00:26:00,58.3,40.7,29.93,East,86,0.0,2.0,52,0.00,,,0.00,Wunderground v.1.15,2013-03-21 05:26:00,
2013-03-21 00:27:00,58.3,40.7,29.93,East,86,1.0,2.0,52,0.00,,,0.00,Wunderground v.1.15,2013-03-21 05:27:00,
2013-03-21 00:28:00,58.3,40.7,29.93,East,86,1.0,2.0,52,0.00,,,0.00,Wunderground v.1.15,2013-03-21 05:28:00,
2013-03-21 00:34:00,58.3,40.7,29.92,East,86,1.0,3.0,52,0.00,,,0.00,Wunderground v.1.15,2013-03-21 05:34:00,
2013-03-21 00:35:00,58.1,40.6,29.92,East,86,1.0,3.0,52,0.00,,,0.00,Wunderground v.1.15,2013-03-21 05:35:00,
2013-03-21 00:39:00,58.3,40.7,29.92,East,86,1.0,3.0,52,0.00,,,0.00,Wunderground v.1.15,2013-03-21 05:39:00,
2013-03-21 00:41:00,58.3,40.7,29.92,East,86,1.0,3.0,52,0.00,,,0.00,Wunderground v.1.15,2013-03-21 05:41:00,
2013-03-21 00:47:00,58.3,40.7,29.92,East,86,1.0,3.0,52,0.00,,,0.00,Wunderground v.1.15,2013-03-21 05:47:00,
2013-03-21 00:49:00,58.3,40.7,29.92,East,86,1.0,3.0,52,0.00,,,0.00,Wunderground v.1.15,2013-03-21 05:49:00,
2013-03-21 00:50:00,58.4,40.8,29.92,East,86,1.0,3.0,52,0.00,,,0.00,Wunderground v.1.15,2013-03-21 05:50:00,
2013-03-21 00:52:00,58.4,40.8,29.92,East,86,1.0,3.0,52,0.00,,,0.00,Wunderground v.1.15,2013-03-21 05:52:00,
2013-03-21 00:53:00,58.6,41.0,29.92,East,86,1.0,3.0,52,0.00,,,0.00,Wunderground v.1.15,2013-03-21 05:53:00,
2013-03-21 00:57:00,58.7,41.1,29.92,East,88,1.0,3.0,52,0.00,,,0.00,Wunderground v.1.15,2013-03-21 05:57:00,
2013-03-21 00:59:00,58.9,41.3,29.92,East,88,1.0,4.0,52,0.00,,,0.00,Wunderground v.1.15,2013-03-21 05:59:00,
2013-03-21 01:00:00,59.0,41.4,29.92,East,88,1.0,1.0,52,0.00,,,0.00,Wunderground v.1.15,2013-03-21 06:00:00,
2013-03-21 01:04:00,59.2,41.1,29.92,East,88,2.0,5.0,51,0.00,,,0.00,Wunderground v.1.15,2013-03-21 06:04:00,
2013-03-21 01:07:00,59.3,41.2,29.92,East,88,2.0,5.0,51,0.00,,,0.00,Wunderground v.1.15,2013-03-21 06:07:00,
2013-03-21 01:08:00,59.3,41.2,29.92,East,88,2.0,5.0,51,0.00,,,0.00,Wunderground v.1.15,2013-03-21 06:08:00,
2013-03-21 01:09:00,59.3,41.2,29.92,East,88,2.0,5.0,51,0.00,,,0.00,Wunderground v.1.15,2013-03-21 06:09:00,
2013-03-21 01:11:00,59.3,41.2,29.92,East,88,2.0,2.0,51,0.00,,,0.00,Wunderground v.1.15,2013-03-21 06:11:00,
2013-03-21 01:14:00,59.5,41.3,29.92,East,88,1.0,5.0,51,0.00,,,0.00,Wunderground v.1.15,2013-03-21 06:14:00,
2013-03-21 01:15:00,59.5,41.3,29.92,East,89,1.0,5.0,51,0.00,,,0.00,Wunderground v.1.15,2013-03-21 06:15:00,
2013-03-21 01:16:00,59.5,40.8,29.91,East,89,2.0,5.0,50,0.00,,,0.00,Wunderground v.1.15,2013-03-21 06:16:00,
2013-03-21 01:19:00,59.6,40.9,29.91,East,92,2.0,5.0,50,0.00,,,0.00,Wunderground v.1.15,2013-03-21 06:19:00,
2013-03-21 01:21:00,59.6,40.9,29.91,East,92,2.0,2.0,50,0.00,,,0.00,Wunderground v.1.15,2013-03-21 06:21:00,
2013-03-21 01:24:00,59.8,41.6,29.91,East,92,1.0,5.0,51,0.00,,,0.00,Wunderground v.1.15,2013-03-21 06:24:00,
2013-03-21 01:25:00,59.8,41.6,29.91,East,92,1.0,5.0,51,0.00,,,0.00,Wunderground v.1.15,2013-03-21 06:25:00,
2013-03-21 01:27:00,59.8,41.6,29.91,East,92,1.0,5.0,51,0.00,,,0.00,Wunderground v.1.15,2013-03-21 06:27:00,
2013-03-21 01:31:00,59.9,42.2,29.92,East,93,1.0,6.0,52,0.00,,,0.00,Wunderground v.1.15,2013-03-21 06:31:00,
2013-03-21 01:33:00,59.9,42.2,29.92,East,93,1.0,6.0,52,0.00,,,0.00,Wunderground v.1.15,2013-03-21 06:33:00,
2013-03-21 01:34:00,60.1,42.4,29.92,East,93,1.0,6.0,52,0.00,,,0.00,Wunderground v.1.15,2013-03-21 06:34:00,
2013-03-21 01:38:00,60.2,43.0,29.92,East,93,1.0,6.0,53,0.00,,,0.00,Wunderground v.1.15,2013-03-21 06:38:00,
2013-03-21 01:39:00,60.2,43.0,29.92,SE,140,2.0,6.0,53,0.00,,,0.00,Wunderground v.1.15,2013-03-21 06:39:00,
2013-03-21 01:40:00,60.2,43.0,29.92,SE,140,2.0,6.0,53,0.00,,,0.00,Wunderground v.1.15,2013-03-21 06:40:00,
2013-03-21 01:42:00,60.4,43.7,29.92,SE,143,2.0,3.0,54,0.00,,,0.00,Wunderground v.1.15,2013-03-21 06:42:00,
2013-03-21 01:44:00,60.4,43.7,29.92,SE,141,2.0,6.0,54,0.00,,,0.00,Wunderground v.1.15,2013-03-21 06:44:00,
2013-03-21 01:46:00,60.4,43.7,29.91,SE,141,3.0,6.0,54,0.00,,,0.00,Wunderground v.1.15,2013-03-21 06:46:00,
2013-03-21 01:48:00,60.4,43.7,29.91,SE,141,3.0,6.0,54,0.00,,,0.00,Wunderground v.1.15,2013-03-21 06:48:00,
2013-03-21 01:49:00,60.4,44.2,29.91,SSE,148,3.0,6.0,55,0.00,,,0.00,Wunderground v.1.15,2013-03-21 06:49:00,
2013-03-21 01:52:00,60.4,44.2,29.91,SE,145,3.0,8.0,55,0.00,,,0.00,Wunderground v.1.15,2013-03-21 06:52:00,
2013-03-21 01:54:00,60.4,44.2,29.91,SSE,147,3.0,8.0,55,0.00,,,0.00,Wunderground v.1.15,2013-03-21 06:54:00,
2013-03-21 01:55:00,60.2,44.0,29.91,SE,145,3.0,8.0,55,0.00,,,0.00,Wunderground v.1.15,2013-03-21 06:55:00,
2013-03-21 01:58:00,60.2,44.0,29.91,SSE,147,3.0,8.0,55,0.00,,,0.00,Wunderground v.1.15,2013-03-21 06:58:00,
2013-03-21 02:00:00,60.1,43.9,29.91,SSE,147,2.0,8.0,55,0.00,,,0.00,Wunderground v.1.15,2013-03-21 07:00:00,
2013-03-21 02:01:00,60.1,43.9,29.90,SSE,147,2.0,8.0,55,0.00,,,0.00,Wunderground v.1.15,2013-03-21 07:01:00,
2013-03-21 02:06:00,60.1,44.3,29.90,SSE,148,2.0,8.0,56,0.00,,,0.00,Wunderground v.1.15,2013-03-21 07:06:00,
2013-03-21 02:07:00,60.1,44.3,29.90,SSE,148,2.0,8.0,56,0.00,,,0.00,Wunderground v.1.15,2013-03-21 07:07:00,
2013-03-21 02:08:00,60.1,44.3,29.90,SSE,152,2.0,8.0,56,0.00,,,0.00,Wunderground v.1.15,2013-03-21 07:08:00,
2013-03-21 02:12:00,60.1,44.3,29.90,SSE,154,2.0,6.0,56,0.00,,,0.00,Wunderground v.1.15,2013-03-21 07:12:00,
2013-03-21 02:13:00,60.1,44.3,29.90,SSE,155,2.0,6.0,56,0.00,,,0.00,Wunderground v.1.15,2013-03-21 07:13:00,
2013-03-21 02:17:00,60.1,44.3,29.90,South,191,2.0,6.0,56,0.00,,,0.00,Wunderground v.1.15,2013-03-21 07:17:00,
2013-03-21 02:22:00,59.9,44.6,29.90,South,191,3.0,10.0,57,0.00,,,0.00,Wunderground v.1.15,2013-03-21 07:22:00,
2013-03-21 02:23:00,59.9,44.6,29.90,South,191,3.0,10.0,57,0.00,,,0.00,Wunderground v.1.15,2013-03-21 07:23:00,
2013-03-21 02:24:00,59.9,44.6,29.90,South,191,3.0,10.0,57,0.00,,,0.00,Wunderground v.1.15,2013-03-21 07:24:00,
2013-03-21 02:27:00,59.9,44.6,29.90,South,191,2.0,10.0,57,0.00,,,0.00,Wunderground v.1.15,2013-03-21 07:27:00,
2013-03-21 02:29:00,59.9,44.6,29.90,South,191,2.0,10.0,57,0.00,,,0.00,Wunderground v.1.15,2013-03-21 07:29:00,
2013-03-21 02:30:00,59.8,44.5,29.90,South,185,2.0,6.0,57,0.00,,,0.00,Wunderground v.1.15,2013-03-21 07:30:00,
2013-03-21 02:32:00,59.8,44.5,29.89,South,185,2.0,6.0,57,0.00,,,0.00,Wunderground v.1.15,2013-03-21 07:32:00,
2013-03-21 02:35:00,59.6,44.3,29.89,South,186,2.0,6.0,57,0.00,,,0.00,Wunderground v.1.15,2013-03-21 07:35:00,
2013-03-21 02:37:00,59.6,44.3,29.89,South,186,2.0,6.0,57,0.00,,,0.00,Wunderground v.1.15,2013-03-21 07:37:00,
2013-03-21 02:40:00,59.5,44.7,29.89,South,186,1.0,6.0,58,0.00,,,0.00,Wunderground v.1.15,2013-03-21 07:40:00,
2013-03-21 02:41:00,59.5,44.7,29.89,South,185,1.0,6.0,58,0.00,,,0.00,Wunderground v.1.15,2013-03-21 07:41:00,
2013-03-21 02:42:00,59.5,44.7,29.89,South,185,1.0,6.0,58,0.00,,,0.00,Wunderground v.1.15,2013-03-21 07:42:00,
2013-03-21 02:46:00,59.3,44.5,29.88,South,185,1.0,6.0,58,0.00,,,0.00,Wunderground v.1.15,2013-03-21 07:46:00,
2013-03-21 02:49:00,59.2,44.4,29.88,South,185,1.0,6.0,58,0.00,,,0.00,Wunderground v.1.15,2013-03-21 07:49:00,
2013-03-21 02:50:00,59.2,44.4,29.88,South,185,1.0,6.0,58,0.00,,,0.00,Wunderground v.1.15,2013-03-21 07:50:00,
2013-03-21 02:54:00,59.0,44.2,29.88,South,185,1.0,5.0,58,0.00,,,0.00,Wunderground v.1.15,2013-03-21 07:54:00,
2013-03-21 02:55:00,59.0,44.2,29.88,South,185,1.0,5.0,58,0.00,,,0.00,Wunderground v.1.15,2013-03-21 07:55:00,
2013-03-21 02:56:00,59.0,44.7,29.88,South,185,1.0,5.0,59,0.00,,,0.00,Wunderground v.1.15,2013-03-21 07:56:00,
2013-03-21 03:00:00,58.9,44.6,29.88,South,185,1.0,4.0,59,0.00,,,0.00,Wunderground v.1.15,2013-03-21 08:00:00,
2013-03-21 03:01:00,58.9,44.6,29.89,South,185,2.0,4.0,59,0.00,,,0.00,Wunderground v.1.15,2013-03-21 08:01:00,
2013-03-21 03:06:00,58.9,44.6,29.89,South,186,2.0,4.0,59,0.00,,,0.00,Wunderground v.1.15,2013-03-21 08:06:00,
2013-03-21 03:07:00,58.9,44.6,29.89,South,186,2.0,4.0,59,0.00,,,0.00,Wunderground v.1.15,2013-03-21 08:07:00,
2013-03-21 03:08:00,58.9,44.6,29.89,South,186,2.0,4.0,59,0.00,,,0.00,Wunderground v.1.15,2013-03-21 08:08:00,
2013-03-21 03:11:00,58.9,44.6,29.89,South,186,2.0,6.0,59,0.00,,,0.00,Wunderground v.1.15,2013-03-21 08:11:00,
2013-03-21 03:13:00,58.9,44.6,29.89,South,186,1.0,6.0,59,0.00,,,0.00,Wunderground v.1.15,2013-03-21 08:13:00,
2013-03-21 03:18:00,58.9,44.6,29.88,South,186,1.0,6.0,59,0.00,,,0.00,Wunderground v.1.15,2013-03-21 08:18:00,
2013-03-21 03:20:00,58.9,44.6,29.88,South,186,2.0,5.0,59,0.00,,,0.00,Wunderground v.1.15,2013-03-21 08:20:00,
2013-03-21 03:22:00,58.9,44.1,29.88,South,186,2.0,5.0,58,0.00,,,0.00,Wunderground v.1.15,2013-03-21 08:22:00,
2013-03-21 03:23:00,58.9,44.1,29.88,South,186,2.0,5.0,58,0.00,,,0.00,Wunderground v.1.15,2013-03-21 08:23:00,
2013-03-21 03:27:00,58.9,44.1,29.88,South,186,2.0,5.0,58,0.00,,,0.00,Wunderground v.1.15,2013-03-21 08:27:00,
2013-03-21 03:28:00,58.9,44.1,29.88,South,186,2.0,5.0,58,0.00,,,0.00,Wunderground v.1.15,2013-03-21 08:28:00,
2013-03-21 03:32:00,58.9,44.1,29.88,South,186,2.0,6.0,58,0.00,,,0.00,Wunderground v.1.15,2013-03-21 08:32:00,
2013-03-21 03:35:00,58.7,44.0,29.88,South,186,2.0,6.0,58,0.00,,,0.00,Wunderground v.1.15,2013-03-21 08:35:00,
2013-03-21 03:36:00,58.7,44.0,29.88,South,186,2.0,6.0,58,0.00,,,0.00,Wunderground v.1.15,2013-03-21 08:36:00,
2013-03-21 03:37:00,58.7,44.0,29.88,South,186,1.0,6.0,58,0.00,,,0.00,Wunderground v.1.15,2013-03-21 08:37:00,
2013-03-21 03:39:00,58.7,44.0,29.88,South,186,2.0,6.0,58,0.00,,,0.00,Wunderground v.1.15,2013-03-21 08:39:00,
2013-03-21 03:40:00,58.7,44.0,29.88,South,185,2.0,5.0,58,0.00,,,0.00,Wunderground v.1.15,2013-03-21 08:40:00,
2013-03-21 03:43:00,58.7,44.0,29.88,South,185,2.0,5.0,58,0.00,,,0.00,Wunderground v.1.15,2013-03-21 08:43:00,
2013-03-21 03:44:00,58.7,44.0,29.88,South,185,3.0,5.0,58,0.00,,,0.00,Wunderground v.1.15,2013-03-21 08:44:00,
2013-03-21 03:45:00,58.7,43.5,29.88,South,185,3.0,5.0,57,0.00,,,0.00,Wunderground v.1.15,2013-03-21 08:45:00,
2013-03-21 03:47:00,58.6,43.4,29.87,South,185,3.0,5.0,57,0.00,,,0.00,Wunderground v.1.15,2013-03-21 08:47:00,
2013-03-21 03:48:00,58.6,43.4,29.87,South,185,3.0,5.0,57,0.00,,,0.00,Wunderground v.1.15,2013-03-21 08:48:00,
2013-03-21 03:50:00,58.6,43.4,29.87,South,185,3.0,7.0,57,0.00,,,0.00,Wunderground v.1.15,2013-03-21 08:50:00,
2013-03-21 03:52:00,58.6,43.4,29.87,South,185,2.0,7.0,57,0.00,,,0.00,Wunderground v.1.15,2013-03-21 08:52:00,
2013-03-21 03:53:00,58.6,43.4,29.87,South,185,3.0,7.0,57,0.00,,,0.00,Wunderground v.1.15,2013-03-21 08:53:00,
2013-03-21 03:58:00,58.4,43.2,29.87,South,185,2.0,7.0,57,0.00,,,0.00,Wunderground v.1.15,2013-03-21 08:58:00,
2013-03-21 04:00:00,58.4,43.2,29.87,South,185,2.0,6.0,57,0.00,,,0.00,Wunderground v.1.15,2013-03-21 09:00:00,
2013-03-21 04:03:00,58.3,43.1,29.87,South,185,2.0,6.0,57,0.00,,,0.00,Wunderground v.1.15,2013-03-21 09:03:00,
2013-03-21 04:06:00,58.3,43.6,29.87,South,185,1.0,6.0,58,0.00,,,0.00,Wunderground v.1.15,2013-03-21 09:06:00,
2013-03-21 04:07:00,58.3,43.6,29.87,South,185,1.0,6.0,58,0.00,,,0.00,Wunderground v.1.15,2013-03-21 09:07:00,
2013-03-21 04:09:00,58.3,43.6,29.87,South,185,2.0,6.0,58,0.00,,,0.00,Wunderground v.1.15,2013-03-21 09:09:00,
2013-03-21 04:10:00,58.1,43.4,29.87,South,185,2.0,4.0,58,0.00,,,0.00,Wunderground v.1.15,2013-03-21 09:10:00,
2013-03-21 04:11:00,58.1,43.4,29.87,South,185,2.0,4.0,58,0.00,,,0.00,Wunderground v.1.15,2013-03-21 09:11:00,
2013-03-21 04:15:00,58.1,43.4,29.87,South,185,1.0,4.0,58,0.00,,,0.00,Wunderground v.1.15,2013-03-21 09:15:00,
2013-03-21 04:18:00,58.0,42.4,29.86,SSW,195,2.0,7.0,56,0.00,,,0.00,Wunderground v.1.15,2013-03-21 09:18:00,
2013-03-21 04:20:00,58.1,42.0,29.86,SSW,192,3.0,3.0,55,0.00,,,0.00,Wunderground v.1.15,2013-03-21 09:20:00,
2013-03-21 04:21:00,58.1,42.0,29.86,SSW,192,3.0,5.0,55,0.00,,,0.00,Wunderground v.1.15,2013-03-21 09:21:00,
2013-03-21 04:24:00,58.1,42.0,29.86,SSW,192,3.0,6.0,55,0.00,,,0.00,Wunderground v.1.15,2013-03-21 09:24:00,
2013-03-21 04:28:00,58.0,41.9,29.86,South,191,3.0,6.0,55,0.00,,,0.00,Wunderground v.1.15,2013-03-21 09:28:00,
2013-03-21 04:30:00,58.0,41.9,29.86,South,191,3.0,3.0,55,0.00,,,0.00,Wunderground v.1.15,2013-03-21 09:30:00,
2013-03-21 04:31:00,58.0,41.9,29.85,South,191,3.0,9.0,55,0.00,,,0.00,Wunderground v.1.15,2013-03-21 09:31:00,
2013-03-21 04:33:00,58.0,41.9,29.85,South,189,3.0,9.0,55,0.00,,,0.00,Wunderground v.1.15,2013-03-21 09:33:00,
2013-03-21 04:35:00,58.0,42.4,29.85,SSE,162,3.0,9.0,56,0.00,,,0.00,Wunderground v.1.15,2013-03-21 09:35:00,
2013-03-21 04:36:00,58.0,42.4,29.85,SSE,165,3.0,9.0,56,0.00,,,0.00,Wunderground v.1.15,2013-03-21 09:36:00,
2013-03-21 04:38:00,57.8,42.2,29.85,SSE,165,3.0,9.0,56,0.00,,,0.00,Wunderground v.1.15,2013-03-21 09:38:00,
2013-03-21 04:41:00,57.8,42.2,29.85,South,182,3.0,7.0,56,0.00,,,0.00,Wunderground v.1.15,2013-03-21 09:41:00,
2013-03-21 04:42:00,57.8,42.2,29.85,South,188,3.0,7.0,56,0.00,,,0.00,Wunderground v.1.15,2013-03-21 09:42:00,
2013-03-21 04:43:00,57.8,42.2,29.85,South,188,4.0,7.0,56,0.00,,,0.00,Wunderground v.1.15,2013-03-21 09:43:00,
2013-03-21 04:46:00,57.6,42.5,29.85,South,171,3.0,7.0,57,0.00,,,0.00,Wunderground v.1.15,2013-03-21 09:46:00,
2013-03-21 04:48:00,57.6,42.5,29.85,South,172,3.0,7.0,57,0.00,,,0.00,Wunderground v.1.15,2013-03-21 09:48:00,
2013-03-21 04:50:00,57.5,42.4,29.85,SSW,193,3.0,9.0,57,0.00,,,0.00,Wunderground v.1.15,2013-03-21 09:50:00,
2013-03-21 04:51:00,57.5,42.4,29.85,SSW,193,3.0,9.0,57,0.00,,,0.00,Wunderground v.1.15,2013-03-21 09:51:00,
2013-03-21 04:52:00,57.5,42.4,29.85,SSW,196,3.0,9.0,57,0.00,,,0.00,Wunderground v.1.15,2013-03-21 09:52:00,
2013-03-21 04:53:00,57.5,42.4,29.85,SSW,196,3.0,9.0,57,0.00,,,0.00,Wunderground v.1.15,2013-03-21 09:53:00,
2013-03-21 04:55:00,57.5,42.8,29.85,SSW,193,3.0,9.0,58,0.00,,,0.00,Wunderground v.1.15,2013-03-21 09:55:00,
2013-03-21 04:56:00,57.3,42.6,29.85,SSW,193,3.0,9.0,58,0.00,,,0.00,Wunderground v.1.15,2013-03-21 09:56:00,
2013-03-21 04:58:00,57.3,42.6,29.85,SSW,195,3.0,9.0,58,0.00,,,0.00,Wunderground v.1.15,2013-03-21 09:58:00,
2013-03-21 05:01:00,57.2,42.5,29.84,SSW,195,2.0,11.0,58,0.00,,,0.00,Wunderground v.1.15,2013-03-21 10:01:00,
2013-03-21 05:02:00,57.2,42.5,29.84,SSW,195,2.0,11.0,58,0.00,,,0.00,Wunderground v.1.15,2013-03-21 10:02:00,
2013-03-21 05:04:00,57.0,42.8,29.84,SSW,195,2.0,11.0,59,0.00,,,0.00,Wunderground v.1.15,2013-03-21 10:04:00,
2013-03-21 05:06:00,56.9,42.7,29.84,SSW,195,2.0,11.0,59,0.00,,,0.00,Wunderground v.1.15,2013-03-21 10:06:00,
2013-03-21 05:10:00,56.7,43.0,29.84,SSW,195,3.0,3.0,60,0.00,,,0.00,Wunderground v.1.15,2013-03-21 10:10:00,
2013-03-21 05:12:00,56.7,43.0,29.84,SSW,195,3.0,7.0,60,0.00,,,0.00,Wunderground v.1.15,2013-03-21 10:12:00,
2013-03-21 05:14:00,56.6,42.9,29.84,SSW,195,3.0,7.0,60,0.00,,,0.00,Wunderground v.1.15,2013-03-21 10:14:00,
2013-03-21 05:17:00,56.5,43.2,29.84,SSW,193,2.0,7.0,61,0.00,,,0.00,Wunderground v.1.15,2013-03-21 10:17:00,
2013-03-21 05:18:00,56.5,43.6,29.84,SSW,193,2.0,7.0,62,0.00,,,0.00,Wunderground v.1.15,2013-03-21 10:18:00,
2013-03-21 05:22:00,56.3,43.4,29.84,SSW,193,2.0,6.0,62,0.00,,,0.00,Wunderground v.1.15,2013-03-21 10:22:00,
2013-03-21 05:23:00,56.2,43.3,29.84,SSW,193,2.0,6.0,62,0.00,,,0.00,Wunderground v.1.15,2013-03-21 10:23:00,
2013-03-21 05:25:00,56.2,43.8,29.84,SSW,193,3.0,6.0,63,0.00,,,0.00,Wunderground v.1.15,2013-03-21 10:25:00,
2013-03-21 05:27:00,56.0,43.6,29.84,SSW,193,3.0,6.0,63,0.00,,,0.00,Wunderground v.1.15,2013-03-21 10:27:00,
2013-03-21 05:28:00,56.0,43.6,29.84,SSW,193,3.0,6.0,63,0.00,,,0.00,Wunderground v.1.15,2013-03-21 10:28:00,
2013-03-21 05:30:00,55.9,43.5,29.84,SSW,193,3.0,3.0,63,0.00,,,0.00,Wunderground v.1.15,2013-03-21 10:30:00,
2013-03-21 05:31:00,55.9,43.9,29.84,SSW,193,3.0,7.0,64,0.00,,,0.00,Wunderground v.1.15,2013-03-21 10:31:00,
2013-03-21 05:33:00,55.7,43.7,29.84,SSW,193,3.0,7.0,64,0.00,,,0.00,Wunderground v.1.15,2013-03-21 10:33:00,
2013-03-21 05:36:00,55.6,43.6,29.84,SSW,193,3.0,7.0,64,0.00,,,0.00,Wunderground v.1.15,2013-03-21 10:36:00,
2013-03-21 05:38:00,55.6,44.0,29.84,SSW,193,3.0,7.0,65,0.00,,,0.00,Wunderground v.1.15,2013-03-21 10:38:00,
2013-03-21 05:40:00,55.4,43.8,29.84,SSW,193,3.0,7.0,65,0.00,,,0.00,Wunderground v.1.15,2013-03-21 10:40:00,
2013-03-21 05:41:00,55.4,43.8,29.84,SSW,193,3.0,6.0,65,0.00,,,0.00,Wunderground v.1.15,2013-03-21 10:41:00,
2013-03-21 05:45:00,55.3,43.7,29.84,SSW,193,2.0,6.0,65,0.00,,,0.00,Wunderground v.1.15,2013-03-21 10:45:00,
2013-03-21 05:47:00,55.3,43.7,29.83,SSW,193,2.0,6.0,65,0.00,,,0.00,Wunderground v.1.15,2013-03-21 10:47:00,
2013-03-21 05:52:00,55.3,44.1,29.83,SSW,193,2.0,6.0,66,0.00,,,0.00,Wunderground v.1.15,2013-03-21 10:52:00,
2013-03-21 05:56:00,55.3,44.1,29.83,SSW,193,2.0,6.0,66,0.00,,,0.00,Wunderground v.1.15,2013-03-21 10:56:00,
2013-03-21 05:57:00,55.3,44.1,29.83,SSW,193,1.0,6.0,66,0.00,,,0.00,Wunderground v.1.15,2013-03-21 10:57:00,
2013-03-21 05:58:00,55.3,44.1,29.83,SSW,193,1.0,6.0,66,0.00,,,0.00,Wunderground v.1.15,2013-03-21 10:58:00,
2013-03-21 06:01:00,55.4,45.0,29.83,SSW,193,1.0,5.0,68,0.00,,,0.00,Wunderground v.1.15,2013-03-21 11:01:00,
2013-03-21 06:03:00,55.6,45.2,29.83,SSW,193,1.0,5.0,68,0.00,,,0.00,Wunderground v.1.15,2013-03-21 11:03:00,
2013-03-21 06:04:00,55.6,45.2,29.83,SSW,193,2.0,5.0,68,0.00,,,0.00,Wunderground v.1.15,2013-03-21 11:04:00,
2013-03-21 06:06:00,55.7,45.3,29.83,SSW,193,2.0,5.0,68,0.00,,,0.00,Wunderground v.1.15,2013-03-21 11:06:00,
2013-03-21 06:11:00,55.9,45.5,29.83,South,189,3.0,6.0,68,0.00,,,0.00,Wunderground v.1.15,2013-03-21 11:11:00,
2013-03-21 06:12:00,56.0,46.0,29.83,SW,215,3.0,6.0,69,0.00,,,0.00,Wunderground v.1.15,2013-03-21 11:12:00,
2013-03-21 06:14:00,56.0,46.0,29.83,South,188,4.0,6.0,69,0.00,,,0.00,Wunderground v.1.15,2013-03-21 11:14:00,
2013-03-21 06:15:00,56.2,46.2,29.83,South,191,4.0,6.0,69,0.00,,,0.00,Wunderground v.1.15,2013-03-21 11:15:00,
2013-03-21 06:17:00,56.2,46.2,29.83,South,191,4.0,6.0,69,0.00,,,0.00,Wunderground v.1.15,2013-03-21 11:17:00,
2013-03-21 06:20:00,56.3,46.6,29.83,SSW,209,3.0,3.0,70,0.00,,,0.00,Wunderground v.1.15,2013-03-21 11:20:00,
2013-03-21 06:22:00,56.3,46.6,29.83,SSW,200,3.0,8.0,70,0.00,,,0.00,Wunderground v.1.15,2013-03-21 11:22:00,
2013-03-21 06:23:00,56.5,46.8,29.83,SSW,200,3.0,8.0,70,0.00,,,0.00,Wunderground v.1.15,2013-03-21 11:23:00,
2013-03-21 06:27:00,56.5,47.2,29.83,SSW,193,4.0,8.0,71,0.00,,,0.00,Wunderground v.1.15,2013-03-21 11:27:00,
2013-03-21 06:30:00,56.6,47.7,29.83,SSE,152,4.0,4.0,72,0.00,,,0.00,Wunderground v.1.15,2013-03-21 11:30:00,
2013-03-21 06:33:00,56.7,47.8,29.83,SSW,195,4.0,8.0,72,0.00,,,0.00,Wunderground v.1.15,2013-03-21 11:33:00,
2013-03-21 06:34:00,56.7,47.8,29.83,SSW,200,4.0,8.0,72,0.00,,,0.00,Wunderground v.1.15,2013-03-21 11:34:00,
2013-03-21 06:35:00,56.7,47.8,29.83,SSW,213,4.0,8.0,72,0.00,,,0.00,Wunderground v.1.15,2013-03-21 11:35:00,
2013-03-21 06:36:00,56.9,48.0,29.83,SSW,213,4.0,8.0,72,0.00,,,0.00,Wunderground v.1.15,2013-03-21 11:36:00,
2013-03-21 06:38:00,56.9,48.3,29.83,South,184,4.0,8.0,73,0.00,,,0.00,Wunderground v.1.15,2013-03-21 11:38:00,
2013-03-21 06:40:00,56.9,48.3,29.83,SSW,205,4.0,8.0,73,0.00,,,0.00,Wunderground v.1.15,2013-03-21 11:40:00,
2013-03-21 06:44:00,57.0,48.8,29.83,South,188,4.0,8.0,74,0.00,,,0.00,Wunderground v.1.15,2013-03-21 11:44:00,
2013-03-21 06:47:00,57.2,49.3,29.82,SW,223,5.0,8.0,75,0.00,,,0.00,Wunderground v.1.15,2013-03-21 11:47:00,
2013-03-21 06:48:00,57.2,49.3,29.82,SSW,200,5.0,8.0,75,0.00,,,0.00,Wunderground v.1.15,2013-03-21 11:48:00,
2013-03-21 06:52:00,57.2,49.3,29.82,South,191,4.0,11.0,75,0.00,,,0.00,Wunderground v.1.15,2013-03-21 11:52:00,
2013-03-21 06:53:00,57.2,49.3,29.82,South,181,4.0,11.0,75,0.00,,,0.00,Wunderground v.1.15,2013-03-21 11:53:00,
2013-03-21 06:54:00,57.2,49.7,29.82,South,191,4.0,11.0,76,0.00,,,0.00,Wunderground v.1.15,2013-03-21 11:54:00,
2013-03-21 06:58:00,57.0,49.5,29.82,South,189,4.0,11.0,76,0.00,,,0.00,Wunderground v.1.15,2013-03-21 11:58:00,
2013-03-21 07:00:00,57.0,49.9,29.82,South,191,4.0,12.0,77,0.00,,,0.00,Wunderground v.1.15,2013-03-21 12:00:00,
2013-03-21 07:01:00,57.0,49.9,29.82,South,186,4.0,12.0,77,0.00,,,0.00,Wunderground v.1.15,2013-03-21 12:01:00,
2013-03-21 07:04:00,57.0,49.9,29.82,SSW,203,4.0,12.0,77,0.00,,,0.00,Wunderground v.1.15,2013-03-21 12:04:00,
2013-03-21 07:05:00,57.0,49.9,29.82,SSW,205,4.0,12.0,77,0.00,,,0.00,Wunderground v.1.15,2013-03-21 12:05:00,
2013-03-21 07:06:00,57.0,49.9,29.82,SSW,205,3.0,12.0,77,0.00,,,0.00,Wunderground v.1.15,2013-03-21 12:06:00,
2013-03-21 07:07:00,56.9,50.1,29.82,SSW,205,3.0,12.0,78,0.00,,,0.00,Wunderground v.1.15,2013-03-21 12:07:00,
2013-03-21 07:12:00,56.9,50.5,29.82,SSW,198,4.0,12.0,79,0.00,,,0.00,Wunderground v.1.15,2013-03-21 12:12:00,
2013-03-21 07:13:00,56.9,50.5,29.82,South,185,4.0,12.0,79,0.00,,,0.00,Wunderground v.1.15,2013-03-21 12:13:00,
2013-03-21 07:15:00,57.0,50.5,29.82,SW,222,5.0,12.0,79,0.00,,,0.00,Wunderground v.1.15,2013-03-21 12:15:00,
2013-03-21 07:16:00,57.0,50.5,29.83,SSW,203,4.0,12.0,79,0.00,,,0.00,Wunderground v.1.15,2013-03-21 12:16:00,
2013-03-21 07:21:00,56.9,50.8,29.83,SSW,199,4.0,9.0,80,0.00,,,0.00,Wunderground v.1.15,2013-03-21 12:21:00,
2013-03-21 07:23:00,56.9,50.8,29.83,South,178,4.0,9.0,80,0.00,,,0.00,Wunderground v.1.15,2013-03-21 12:23:00,
2013-03-21 07:24:00,56.9,50.8,29.83,South,189,5.0,9.0,80,0.00,,,0.00,Wunderground v.1.15,2013-03-21 12:24:00,
2013-03-21 07:25:00,56.9,50.8,29.83,SSW,203,4.0,9.0,80,0.00,,,0.00,Wunderground v.1.15,2013-03-21 12:25:00,
2013-03-21 07:26:00,56.9,50.8,29.83,SSW,203,4.0,9.0,80,0.00,,,0.00,Wunderground v.1.15,2013-03-21 12:26:00,
2013-03-21 07:28:00,56.7,50.6,29.83,South,182,4.0,9.0,80,0.00,,,0.00,Wunderground v.1.15,2013-03-21 12:28:00,
2013-03-21 07:29:00,56.7,50.9,29.83,South,172,4.0,4.0,81,0.00,,,0.00,Wunderground v.1.15,2013-03-21 12:29:00,
2013-03-21 07:31:00,56.7,50.9,29.82,South,181,4.0,16.0,81,0.00,,,0.00,Wunderground v.1.15,2013-03-21 12:31:00,
2013-03-21 07:35:00,56.7,50.9,29.82,SSW,196,5.0,16.0,81,0.00,,,0.00,Wunderground v.1.15,2013-03-21 12:35:00,
2013-03-21 07:37:00,56.6,51.2,29.82,SW,215,5.0,16.0,82,0.00,,,0.00,Wunderground v.1.15,2013-03-21 12:37:00,
2013-03-21 07:40:00,56.6,51.2,29.82,South,182,5.0,16.0,82,0.00,,,0.00,Wunderground v.1.15,2013-03-21 12:40:00,
2013-03-21 07:42:00,56.6,51.2,29.82,South,189,4.0,16.0,82,0.00,,,0.00,Wunderground v.1.15,2013-03-21 12:42:00,
2013-03-21 07:45:00,56.6,51.2,29.82,South,184,4.0,16.0,82,0.00,,,0.00,Wunderground v.1.15,2013-03-21 12:45:00,
2013-03-21 07:46:00,56.6,51.2,29.81,South,186,4.0,16.0,82,0.00,,,0.00,Wunderground v.1.15,2013-03-21 12:46:00,
2013-03-21 07:48:00,56.6,51.2,29.81,SSW,199,5.0,16.0,82,0.00,,,0.00,Wunderground v.1.15,2013-03-21 12:48:00,
2013-03-21 07:51:00,56.5,51.4,29.81,South,174,5.0,16.0,83,0.00,,,0.00,Wunderground v.1.15,2013-03-21 12:51:00,
2013-03-21 07:53:00,56.6,51.5,29.81,SSW,192,5.0,11.0,83,0.00,,,0.00,Wunderground v.1.15,2013-03-21 12:53:00,
2013-03-21 07:57:00,56.6,51.5,29.81,South,188,5.0,11.0,83,0.00,,,0.00,Wunderground v.1.15,2013-03-21 12:57:00,
2013-03-21 07:58:00,56.6,51.5,29.81,SSW,203,5.0,11.0,83,0.00,,,0.00,Wunderground v.1.15,2013-03-21 12:58:00,
2013-03-21 08:04:00,56.7,51.6,29.81,SW,215,5.0,11.0,83,0.00,,,0.00,Wunderground v.1.15,2013-03-21 13:04:00,
2013-03-21 08:05:00,56.7,51.6,29.81,SSW,200,5.0,11.0,83,0.00,,,0.00,Wunderground v.1.15,2013-03-21 13:05:00,
2013-03-21 08:07:00,56.9,51.8,29.81,SW,219,4.0,11.0,83,0.00,,,0.00,Wunderground v.1.15,2013-03-21 13:07:00,
2013-03-21 08:09:00,56.9,51.8,29.81,SSW,213,4.0,11.0,83,0.00,,,0.00,Wunderground v.1.15,2013-03-21 13:09:00,
2013-03-21 08:11:00,56.9,51.8,29.81,SW,230,4.0,11.0,83,0.00,,,0.00,Wunderground v.1.15,2013-03-21 13:11:00,
2013-03-21 08:14:00,57.0,52.2,29.81,SSW,205,5.0,11.0,84,0.00,,,0.00,Wunderground v.1.15,2013-03-21 13:14:00,
2013-03-21 08:17:00,57.2,52.4,29.81,South,188,4.0,11.0,84,0.00,,,0.00,Wunderground v.1.15,2013-03-21 13:17:00,
2013-03-21 08:18:00,57.2,52.4,29.81,SSW,195,5.0,11.0,84,0.00,,,0.00,Wunderground v.1.15,2013-03-21 13:18:00,
2013-03-21 08:19:00,57.2,52.4,29.81,South,191,5.0,11.0,84,0.00,,,0.00,Wunderground v.1.15,2013-03-21 13:19:00,
2013-03-21 08:24:00,57.5,52.7,29.81,South,191,5.0,10.0,84,0.00,,,0.00,Wunderground v.1.15,2013-03-21 13:24:00,
2013-03-21 08:25:00,57.5,52.7,29.81,South,185,5.0,10.0,84,0.00,,,0.00,Wunderground v.1.15,2013-03-21 13:25:00,
2013-03-21 08:27:00,57.6,52.8,29.81,SSW,195,6.0,10.0,84,0.00,,,0.00,Wunderground v.1.15,2013-03-21 13:27:00,
2013-03-21 08:29:00,57.6,52.5,29.81,SSW,202,5.0,10.0,83,0.00,,,0.00,Wunderground v.1.15,2013-03-21 13:29:00,
2013-03-21 08:30:00,57.8,52.7,29.81,SSW,198,5.0,13.0,83,0.00,,,0.00,Wunderground v.1.15,2013-03-21 13:30:00,
2013-03-21 08:32:00,57.8,52.7,29.81,South,189,5.0,13.0,83,0.00,,,0.00,Wunderground v.1.15,2013-03-21 13:32:00,
2013-03-21 08:33:00,57.8,52.7,29.81,SSW,200,5.0,13.0,83,0.00,,,0.00,Wunderground v.1.15,2013-03-21 13:33:00,
2013-03-21 08:35:00,58.0,52.9,29.81,South,189,5.0,13.0,83,0.00,,,0.00,Wunderground v.1.15,2013-03-21 13:35:00,
2013-03-21 08:37:00,58.0,52.9,29.81,SSW,210,5.0,13.0,83,0.00,,,0.00,Wunderground v.1.15,2013-03-21 13:37:00,
2013-03-21 08:40:00,58.1,53.0,29.81,SSW,196,5.0,13.0,83,0.00,,,0.00,Wunderground v.1.15,2013-03-21 13:40:00,
2013-03-21 08:41:00,58.1,53.0,29.81,SSW,196,5.0,5.0,83,0.00,,,0.00,Wunderground v.1.15,2013-03-21 13:41:00,
2013-03-21 08:43:00,58.3,53.2,29.81,SSW,193,5.0,13.0,83,0.00,,,0.00,Wunderground v.1.15,2013-03-21 13:43:00,
2013-03-21 08:46:00,58.4,53.3,29.81,South,188,5.0,13.0,83,0.00,,,0.00,Wunderground v.1.15,2013-03-21 13:46:00,
2013-03-21 08:47:00,58.4,53.3,29.81,SSW,203,5.0,13.0,83,0.00,,,0.00,Wunderground v.1.15,2013-03-21 13:47:00,
2013-03-21 08:50:00,58.6,53.5,29.81,South,175,7.0,13.0,83,0.00,,,0.00,Wunderground v.1.15,2013-03-21 13:50:00,
2013-03-21 08:54:00,58.7,53.5,29.81,SSW,200,7.0,11.0,83,0.00,,,0.00,Wunderground v.1.15,2013-03-21 13:54:00,
2013-03-21 08:55:00,58.9,53.7,29.81,South,186,8.0,11.0,83,0.00,,,0.00,Wunderground v.1.15,2013-03-21 13:55:00,
2013-03-21 08:57:00,58.9,53.7,29.81,ESE,119,8.0,11.0,83,0.00,,,0.00,Wunderground v.1.15,2013-03-21 13:57:00,
2013-03-21 09:00:00,59.0,53.8,29.81,South,185,8.0,8.0,83,0.00,,,0.00,Wunderground v.1.15,2013-03-21 14:00:00,
2013-03-21 09:03:00,59.0,53.8,29.81,SE,137,8.0,16.0,83,0.00,,,0.00,Wunderground v.1.15,2013-03-21 14:03:00,
2013-03-21 09:05:00,59.0,53.8,29.81,South,179,7.0,16.0,83,0.00,,,0.00,Wunderground v.1.15,2013-03-21 14:05:00,
2013-03-21 09:06:00,59.0,53.8,29.81,SW,216,7.0,16.0,83,0.00,,,0.00,Wunderground v.1.15,2013-03-21 14:06:00,
2013-03-21 09:09:00,59.0,53.8,29.81,SSW,193,8.0,16.0,83,0.00,,,0.00,Wunderground v.1.15,2013-03-21 14:09:00,
2013-03-21 09:10:00,59.0,53.8,29.81,South,184,8.0,8.0,83,0.00,,,0.00,Wunderground v.1.15,2013-03-21 14:10:00,
2013-03-21 09:14:00,59.2,54.0,29.81,South,185,7.0,17.0,83,0.00,,,0.00,Wunderground v.1.15,2013-03-21 14:14:00,
2013-03-21 09:16:00,59.2,54.0,29.81,SSW,195,7.0,17.0,83,0.00,,,0.00,Wunderground v.1.15,2013-03-21 14:16:00,
2013-03-21 09:18:00,59.3,54.1,29.81,SW,227,7.0,17.0,83,0.00,,,0.00,Wunderground v.1.15,2013-03-21 14:18:00,
2013-03-21 09:19:00,59.3,54.1,29.81,South,182,6.0,17.0,83,0.00,,,0.00,Wunderground v.1.15,2013-03-21 14:19:00,
2013-03-21 09:20:00,59.3,54.1,29.81,SSW,195,6.0,17.0,83,0.00,,,0.00,Wunderground v.1.15,2013-03-21 14:20:00,
2013-03-21 09:22:00,59.3,54.1,29.81,SSE,157,6.0,14.0,83,0.00,,,0.00,Wunderground v.1.15,2013-03-21 14:22:00,
2013-03-21 09:23:00,59.3,54.1,29.81,SSW,200,6.0,14.0,83,0.00,,,0.00,Wunderground v.1.15,2013-03-21 14:23:00,
2013-03-21 09:24:00,59.3,54.1,29.81,South,181,6.0,14.0,83,0.00,,,0.00,Wunderground v.1.15,2013-03-21 14:24:00,
2013-03-21 09:26:00,59.3,54.1,29.81,South,182,6.0,14.0,83,0.00,,,0.00,Wunderground v.1.15,2013-03-21 14:26:00,
2013-03-21 09:27:00,59.5,54.3,29.81,South,186,6.0,14.0,83,0.00,,,0.00,Wunderground v.1.15,2013-03-21 14:27:00,
2013-03-21 09:31:00,59.5,54.3,29.82,South,184,6.0,14.0,83,0.00,,,0.00,Wunderground v.1.15,2013-03-21 14:31:00,
2013-03-21 09:32:00,59.3,54.1,29.82,South,176,6.0,14.0,83,0.00,,,0.00,Wunderground v.1.15,2013-03-21 14:32:00,
2013-03-21 09:33:00,59.3,54.1,29.82,SSW,198,7.0,14.0,83,0.00,,,0.00,Wunderground v.1.15,2013-03-21 14:33:00,
2013-03-21 09:35:00,59.3,54.1,29.82,SE,130,7.0,14.0,83,0.00,,,0.00,Wunderground v.1.15,2013-03-21 14:35:00,
2013-03-21 09:36:00,59.3,54.1,29.82,SSW,199,7.0,14.0,83,0.00,,,0.00,Wunderground v.1.15,2013-03-21 14:36:00,
2013-03-21 09:37:00,59.2,54.0,29.82,SE,137,7.0,14.0,83,0.00,,,0.00,Wunderground v.1.15,2013-03-21 14:37:00,
2013-03-21 09:40:00,59.2,54.0,29.82,SE,131,7.0,16.0,83,0.00,,,0.00,Wunderground v.1.15,2013-03-21 14:40:00,
2013-03-21 09:42:00,59.2,54.0,29.82,SSE,164,7.0,16.0,83,0.00,,,0.00,Wunderground v.1.15,2013-03-21 14:42:00,
2013-03-21 09:47:00,59.2,54.0,29.81,South,189,7.0,16.0,83,0.00,,,0.00,Wunderground v.1.15,2013-03-21 14:47:00,
2013-03-21 09:50:00,59.0,54.2,29.81,SSE,154,7.0,16.0,84,0.00,,,0.00,Wunderground v.1.15,2013-03-21 14:50:00,
2013-03-21 09:56:00,59.0,54.2,29.81,South,176,8.0,16.0,84,0.00,,,0.00,Wunderground v.1.15,2013-03-21 14:56:00,
2013-03-21 09:58:00,59.0,54.2,29.81,South,179,8.0,16.0,84,0.00,,,0.00,Wunderground v.1.15,2013-03-21 14:58:00,
2013-03-21 09:59:00,59.0,54.2,29.81,SSW,196,8.0,16.0,84,0.00,,,0.00,Wunderground v.1.15,2013-03-21 14:59:00,
2013-03-21 10:03:00,59.0,54.2,29.81,SSE,148,8.0,19.0,84,0.00,,,0.00,Wunderground v.1.15,2013-03-21 15:03:00,
2013-03-21 10:05:00,59.0,54.2,29.81,SSE,167,8.0,19.0,84,0.00,,,0.00,Wunderground v.1.15,2013-03-21 15:05:00,
2013-03-21 10:06:00,59.0,54.2,29.81,South,191,8.0,19.0,84,0.00,,,0.00,Wunderground v.1.15,2013-03-21 15:06:00,
2013-03-21 10:09:00,59.2,54.7,29.81,SSW,192,7.0,19.0,85,0.00,,,0.00,Wunderground v.1.15,2013-03-21 15:09:00,
2013-03-21 10:10:00,59.2,54.4,29.81,South,189,7.0,19.0,84,0.00,,,0.00,Wunderground v.1.15,2013-03-21 15:10:00,
2013-03-21 10:11:00,59.3,54.5,29.81,South,189,7.0,19.0,84,0.00,,,0.00,Wunderground v.1.15,2013-03-21 15:11:00,
2013-03-21 10:14:00,59.3,54.5,29.81,SSW,198,7.0,19.0,84,0.00,,,0.00,Wunderground v.1.15,2013-03-21 15:14:00,
2013-03-21 10:15:00,59.5,54.7,29.81,South,176,7.0,19.0,84,0.00,,,0.00,Wunderground v.1.15,2013-03-21 15:15:00,
2013-03-21 10:18:00,59.6,54.8,29.80,SSW,198,7.0,19.0,84,0.00,,,0.00,Wunderground v.1.15,2013-03-21 15:18:00,
2013-03-21 10:19:00,59.6,54.8,29.80,SSW,203,7.0,19.0,84,0.00,,,0.00,Wunderground v.1.15,2013-03-21 15:19:00,
2013-03-21 10:22:00,59.8,54.6,29.80,SSE,154,7.0,16.0,83,0.00,,,0.00,Wunderground v.1.15,2013-03-21 15:22:00,
2013-03-21 10:24:00,60.1,54.9,29.80,South,172,7.0,16.0,83,0.00,,,0.00,Wunderground v.1.15,2013-03-21 15:24:00,
2013-03-21 10:27:00,60.2,55.0,29.80,South,171,6.0,16.0,83,0.00,,,0.00,Wunderground v.1.15,2013-03-21 15:27:00,
2013-03-21 10:28:00,60.4,55.2,29.80,South,174,6.0,16.0,83,0.00,,,0.00,Wunderground v.1.15,2013-03-21 15:28:00,
2013-03-21 10:30:00,60.5,55.3,29.80,SSE,162,6.0,16.0,83,0.00,,,0.00,Wunderground v.1.15,2013-03-21 15:30:00,
2013-03-21 10:31:00,60.5,55.3,29.80,SE,137,5.0,5.0,83,0.00,,,0.00,Wunderground v.1.15,2013-03-21 15:31:00,
2013-03-21 10:32:00,60.7,55.5,29.79,South,179,5.0,8.0,83,0.00,,,0.00,Wunderground v.1.15,2013-03-21 15:32:00,
2013-03-21 10:37:00,60.9,55.4,29.79,South,189,7.0,14.0,82,0.00,,,0.00,Wunderground v.1.15,2013-03-21 15:37:00,
2013-03-21 10:40:00,61.2,55.3,29.79,SW,222,8.0,14.0,81,0.00,,,0.00,Wunderground v.1.15,2013-03-21 15:40:00,
2013-03-21 10:42:00,61.3,55.4,29.79,SSW,200,9.0,9.0,81,0.00,,,0.00,Wunderground v.1.15,2013-03-21 15:42:00,
2013-03-21 10:45:00,61.3,55.1,29.79,SSW,198,8.0,13.0,80,0.00,,,0.00,Wunderground v.1.15,2013-03-21 15:45:00,
2013-03-21 10:50:00,61.8,54.9,29.79,SSW,212,9.0,18.0,78,0.00,,,0.00,Wunderground v.1.15,2013-03-21 15:50:00,
2013-03-21 10:51:00,61.8,54.9,29.79,South,171,9.0,9.0,78,0.00,,,0.00,Wunderground v.1.15,2013-03-21 15:51:00,
2013-03-21 10:54:00,62.3,55.0,29.79,SSW,205,8.0,18.0,77,0.00,,,0.00,Wunderground v.1.15,2013-03-21 15:54:00,
2013-03-21 10:57:00,62.4,54.7,29.79,SSE,157,7.0,18.0,76,0.00,,,0.00,Wunderground v.1.15,2013-03-21 15:57:00,
2013-03-21 10:58:00,62.4,54.7,29.79,SSE,167,7.0,18.0,76,0.00,,,0.00,Wunderground v.1.15,2013-03-21 15:58:00,
2013-03-21 11:02:00,62.6,54.9,29.79,SSE,165,7.0,21.0,76,0.00,,,0.00,Wunderground v.1.15,2013-03-21 16:02:00,
2013-03-21 11:03:00,62.7,55.0,29.79,SSW,193,7.0,21.0,76,0.00,,,0.00,Wunderground v.1.15,2013-03-21 16:03:00,
2013-03-21 11:05:00,62.9,54.9,29.79,SSW,193,7.0,21.0,75,0.00,,,0.00,Wunderground v.1.15,2013-03-21 16:05:00,
2013-03-21 11:07:00,63.1,55.0,29.79,South,181,7.0,21.0,75,0.00,,,0.00,Wunderground v.1.15,2013-03-21 16:07:00,
2013-03-21 11:09:00,63.2,54.8,29.79,South,172,7.0,21.0,74,0.00,,,0.00,Wunderground v.1.15,2013-03-21 16:09:00,
2013-03-21 11:12:00,63.5,54.7,29.79,South,185,7.0,14.0,73,0.00,,,0.00,Wunderground v.1.15,2013-03-21 16:12:00,
2013-03-21 11:13:00,63.7,54.9,29.79,SSW,209,7.0,14.0,73,0.00,,,0.00,Wunderground v.1.15,2013-03-21 16:13:00,
2013-03-21 11:14:00,63.7,54.9,29.79,South,174,8.0,14.0,73,0.00,,,0.00,Wunderground v.1.15,2013-03-21 16:14:00,
2013-03-21 11:15:00,63.7,54.9,29.79,South,188,7.0,14.0,73,0.00,,,0.00,Wunderground v.1.15,2013-03-21 16:15:00,
2013-03-21 11:17:00,63.9,55.1,29.78,SSE,160,7.0,14.0,73,0.00,,,0.00,Wunderground v.1.15,2013-03-21 16:17:00,
2013-03-21 11:19:00,64.0,55.2,29.78,South,169,7.0,14.0,73,0.00,,,0.00,Wunderground v.1.15,2013-03-21 16:19:00,
2013-03-21 11:22:00,64.2,55.0,29.78,SSW,208,7.0,16.0,72,0.00,,,0.00,Wunderground v.1.15,2013-03-21 16:22:00,
2013-03-21 11:24:00,64.3,55.1,29.78,South,176,7.0,16.0,72,0.00,,,0.00,Wunderground v.1.15,2013-03-21 16:24:00,
2013-03-21 11:27:00,64.5,55.3,29.78,SSE,162,7.0,16.0,72,0.00,,,0.00,Wunderground v.1.15,2013-03-21 16:27:00,
2013-03-21 11:29:00,64.5,54.9,29.78,ESE,123,7.0,16.0,71,0.00,,,0.00,Wunderground v.1.15,2013-03-21 16:29:00,
2013-03-21 11:30:00,64.5,54.9,29.78,South,174,8.0,8.0,71,0.00,,,0.00,Wunderground v.1.15,2013-03-21 16:30:00,
2013-03-21 11:32:00,64.7,55.1,29.77,SE,124,8.0,18.0,71,0.00,,,0.00,Wunderground v.1.15,2013-03-21 16:32:00,
2013-03-21 11:35:00,64.7,54.7,29.77,SW,223,8.0,18.0,70,0.00,,,0.00,Wunderground v.1.15,2013-03-21 16:35:00,
2013-03-21 11:37:00,65.0,55.0,29.77,SE,128,8.0,18.0,70,0.00,,,0.00,Wunderground v.1.15,2013-03-21 16:37:00,
2013-03-21 11:38:00,65.0,55.0,29.77,SSE,157,8.0,18.0,70,0.00,,,0.00,Wunderground v.1.15,2013-03-21 16:38:00,
2013-03-21 11:42:00,65.3,54.9,29.77,SSW,192,9.0,16.0,69,0.00,,,0.00,Wunderground v.1.15,2013-03-21 16:42:00,
2013-03-21 11:44:00,65.5,55.1,29.77,South,171,9.0,16.0,69,0.00,,,0.00,Wunderground v.1.15,2013-03-21 16:44:00,
2013-03-21 11:45:00,65.5,55.1,29.77,SSE,165,9.0,16.0,69,0.00,,,0.00,Wunderground v.1.15,2013-03-21 16:45:00,
2013-03-21 11:48:00,65.6,54.8,29.76,South,191,9.0,16.0,68,0.00,,,0.00,Wunderground v.1.15,2013-03-21 16:48:00,
2013-03-21 11:49:00,65.8,54.9,29.76,SSW,199,9.0,16.0,68,0.00,,,0.00,Wunderground v.1.15,2013-03-21 16:49:00,
2013-03-21 11:51:00,66.0,55.1,29.76,South,184,9.0,19.0,68,0.00,,,0.00,Wunderground v.1.15,2013-03-21 16:51:00,
2013-03-21 11:54:00,66.1,54.8,29.76,SSE,161,9.0,19.0,67,0.00,,,0.00,Wunderground v.1.15,2013-03-21 16:54:00,
2013-03-21 11:55:00,66.3,55.0,29.76,South,172,8.0,19.0,67,0.00,,,0.00,Wunderground v.1.15,2013-03-21 16:55:00,
2013-03-21 11:56:00,66.6,55.3,29.76,SE,137,8.0,19.0,67,0.00,,,0.00,Wunderground v.1.15,2013-03-21 16:56:00,
2013-03-21 12:00:00,66.6,54.5,29.76,WSW,243,8.0,18.0,65,0.00,,,0.00,Wunderground v.1.15,2013-03-21 17:00:00,
2013-03-21 12:01:00,66.6,54.5,29.75,SSE,157,8.0,18.0,65,0.00,,,0.00,Wunderground v.1.15,2013-03-21 17:01:00,
2013-03-21 12:02:00,66.4,54.3,29.75,SSE,167,8.0,18.0,65,0.00,,,0.00,Wunderground v.1.15,2013-03-21 17:02:00,
2013-03-21 12:07:00,66.4,54.3,29.75,SSE,160,10.0,18.0,65,0.00,,,0.00,Wunderground v.1.15,2013-03-21 17:07:00,
2013-03-21 12:08:00,66.4,54.3,29.75,South,188,10.0,18.0,65,0.00,,,0.00,Wunderground v.1.15,2013-03-21 17:08:00,
2013-03-21 12:10:00,66.6,54.5,29.75,SW,216,10.0,10.0,65,0.00,,,0.00,Wunderground v.1.15,2013-03-21 17:10:00,
2013-03-21 12:11:00,66.6,54.5,29.75,South,188,10.0,20.0,65,0.00,,,0.00,Wunderground v.1.15,2013-03-21 17:11:00,
2013-03-21 12:13:00,66.8,54.2,29.75,SSW,205,10.0,20.0,64,0.00,,,0.00,Wunderground v.1.15,2013-03-21 17:13:00,
2013-03-21 12:16:00,67.3,54.7,29.75,South,179,9.0,20.0,64,0.00,,,0.00,Wunderground v.1.15,2013-03-21 17:16:00,
2013-03-21 12:17:00,67.4,54.8,29.75,SW,217,9.0,20.0,64,0.00,,,0.00,Wunderground v.1.15,2013-03-21 17:17:00,
2013-03-21 12:18:00,67.6,54.6,29.75,SSW,195,9.0,20.0,63,0.00,,,0.00,Wunderground v.1.15,2013-03-21 17:18:00,
2013-03-21 12:23:00,67.6,54.6,29.75,SW,222,9.0,27.0,63,0.00,,,0.00,Wunderground v.1.15,2013-03-21 17:23:00,
2013-03-21 12:24:00,67.6,54.6,29.75,South,178,9.0,27.0,63,0.00,,,0.00,Wunderground v.1.15,2013-03-21 17:24:00,
2013-03-21 12:25:00,67.8,54.7,29.75,SSE,151,9.0,27.0,63,0.00,,,0.00,Wunderground v.1.15,2013-03-21 17:25:00,
2013-03-21 12:27:00,68.1,54.6,29.75,South,175,8.0,27.0,62,0.00,,,0.00,Wunderground v.1.15,2013-03-21 17:27:00,
2013-03-21 12:28:00,68.1,54.6,29.75,SE,141,8.0,27.0,62,0.00,,,0.00,Wunderground v.1.15,2013-03-21 17:28:00,
2013-03-21 12:29:00,68.1,54.1,29.75,SSE,164,8.0,27.0,61,0.00,,,0.00,Wunderground v.1.15,2013-03-21 17:29:00,
2013-03-21 12:33:00,68.4,54.4,29.73,South,171,8.0,17.0,61,0.00,,,0.00,Wunderground v.1.15,2013-03-21 17:33:00,
2013-03-21 12:35:00,68.6,54.6,29.73,SSW,199,8.0,17.0,61,0.00,,,0.00,Wunderground v.1.15,2013-03-21 17:35:00,
2013-03-21 12:38:00,68.9,54.4,29.73,WSW,254,8.0,18.0,60,0.00,,,0.00,Wunderground v.1.15,2013-03-21 17:38:00,
2013-03-21 12:40:00,69.4,54.9,29.73,SSE,168,7.0,17.0,60,0.00,,,0.00,Wunderground v.1.15,2013-03-21 17:40:00,
2013-03-21 12:42:00,69.6,54.6,29.73,SW,233,7.0,17.0,59,0.00,,,0.00,Wunderground v.1.15,2013-03-21 17:42:00,
2013-03-21 12:44:00,69.9,54.9,29.73,SW,230,7.0,17.0,59,0.00,,,0.00,Wunderground v.1.15,2013-03-21 17:44:00,
2013-03-21 12:47:00,70.3,54.8,29.72,SSE,154,7.0,17.0,58,0.00,,,0.00,Wunderground v.1.15,2013-03-21 17:47:00,
2013-03-21 12:49:00,70.4,54.9,29.72,SSW,212,8.0,17.0,58,0.00,,,0.00,Wunderground v.1.15,2013-03-21 17:49:00,
2013-03-21 12:50:00,70.1,54.6,29.72,SE,133,8.0,22.0,58,0.00,,,0.00,Wunderground v.1.15,2013-03-21 17:50:00,
2013-03-21 12:51:00,70.1,54.6,29.72,SSW,192,9.0,22.0,58,0.00,,,0.00,Wunderground v.1.15,2013-03-21 17:51:00,
2013-03-21 12:54:00,70.3,54.8,29.72,SSW,196,9.0,22.0,58,0.00,,,0.00,Wunderground v.1.15,2013-03-21 17:54:00,
2013-03-21 12:57:00,69.9,54.4,29.72,South,189,11.0,22.0,58,0.00,,,0.00,Wunderground v.1.15,2013-03-21 17:57:00,
2013-03-21 12:58:00,69.9,54.9,29.72,SSW,213,11.0,22.0,59,0.00,,,0.00,Wunderground v.1.15,2013-03-21 17:58:00,
2013-03-21 13:01:00,69.9,54.4,29.71,South,189,11.0,11.0,58,0.00,,,0.00,Wunderground v.1.15,2013-03-21 18:01:00,
2013-03-21 13:03:00,70.4,54.9,29.71,SE,136,11.0,20.0,58,0.00,,,0.00,Wunderground v.1.15,2013-03-21 18:03:00,
2013-03-21 13:04:00,70.4,54.9,29.71,SSW,209,11.0,20.0,58,0.00,,,0.00,Wunderground v.1.15,2013-03-21 18:04:00,
2013-03-21 13:07:00,70.8,54.8,29.71,South,182,10.0,20.0,57,0.00,,,0.00,Wunderground v.1.15,2013-03-21 18:07:00,
2013-03-21 13:11:00,70.8,54.8,29.71,South,174,9.0,9.0,57,0.00,,,0.00,Wunderground v.1.15,2013-03-21 18:11:00,
2013-03-21 13:14:00,70.9,54.4,29.71,SSE,160,9.0,21.0,56,0.00,,,0.00,Wunderground v.1.15,2013-03-21 18:14:00,
2013-03-21 13:15:00,71.1,54.6,29.71,SSW,200,9.0,21.0,56,0.00,,,0.00,Wunderground v.1.15,2013-03-21 18:15:00,
2013-03-21 13:16:00,71.1,54.1,29.70,South,174,9.0,21.0,55,0.00,,,0.00,Wunderground v.1.15,2013-03-21 18:16:00,
2013-03-21 13:18:00,70.8,54.8,29.70,SSW,193,9.0,21.0,57,0.00,,,0.00,Wunderground v.1.15,2013-03-21 18:18:00,
2013-03-21 13:23:00,70.6,54.6,29.70,SSW,198,10.0,21.0,57,0.00,,,0.00,Wunderground v.1.15,2013-03-21 18:23:00,
2013-03-21 13:24:00,70.6,54.1,29.70,SW,215,11.0,21.0,56,0.00,,,0.00,Wunderground v.1.15,2013-03-21 18:24:00,
2013-03-21 13:25:00,70.8,54.8,29.70,South,188,11.0,21.0,57,0.00,,,0.00,Wunderground v.1.15,2013-03-21 18:25:00,
2013-03-21 13:28:00,70.8,54.3,29.70,SSW,206,10.0,21.0,56,0.00,,,0.00,Wunderground v.1.15,2013-03-21 18:28:00,
2013-03-21 13:29:00,70.8,54.3,29.70,SSE,162,10.0,21.0,56,0.00,,,0.00,Wunderground v.1.15,2013-03-21 18:29:00,
2013-03-21 13:32:00,70.8,54.8,29.69,SSW,206,10.0,18.0,57,0.00,,,0.00,Wunderground v.1.15,2013-03-21 18:32:00,
2013-03-21 13:37:00,70.6,55.1,29.69,SSW,209,11.0,20.0,58,0.00,,,0.00,Wunderground v.1.15,2013-03-21 18:37:00,
2013-03-21 13:38:00,70.6,55.1,29.69,SSW,212,11.0,20.0,58,0.00,,,0.00,Wunderground v.1.15,2013-03-21 18:38:00,
2013-03-21 13:39:00,70.8,55.3,29.69,SW,216,11.0,20.0,58,0.00,,,0.00,Wunderground v.1.15,2013-03-21 18:39:00,
2013-03-21 13:42:00,70.9,55.4,29.69,SSW,213,11.0,22.0,58,0.00,,,0.00,Wunderground v.1.15,2013-03-21 18:42:00,
2013-03-21 13:43:00,71.1,55.6,29.69,SSW,196,11.0,22.0,58,0.00,,,0.00,Wunderground v.1.15,2013-03-21 18:43:00,
2013-03-21 13:47:00,71.3,55.8,29.67,South,179,10.0,22.0,58,0.00,,,0.00,Wunderground v.1.15,2013-03-21 18:47:00,
2013-03-21 13:49:00,71.5,55.9,29.67,WSW,239,9.0,22.0,58,0.00,,,0.00,Wunderground v.1.15,2013-03-21 18:49:00,
2013-03-21 13:53:00,70.9,55.4,29.67,WSW,246,9.0,21.0,58,0.00,,,0.00,Wunderground v.1.15,2013-03-21 18:53:00,
2013-03-21 13:55:00,70.8,55.3,29.67,SW,216,8.0,21.0,58,0.00,,,0.00,Wunderground v.1.15,2013-03-21 18:55:00,
2013-03-21 13:58:00,70.6,55.6,29.67,SSE,158,8.0,21.0,59,0.00,,,0.00,Wunderground v.1.15,2013-03-21 18:58:00,
2013-03-21 13:59:00,70.6,55.6,29.67,SW,223,8.0,21.0,59,0.00,,,0.00,Wunderground v.1.15,2013-03-21 18:59:00,
2013-03-21 14:01:00,70.6,55.6,29.67,SSW,208,8.0,19.0,59,0.00,,,0.00,Wunderground v.1.15,2013-03-21 19:01:00,
2013-03-21 14:02:00,70.6,55.6,29.67,SSW,203,8.0,19.0,59,0.00,,,0.00,Wunderground v.1.15,2013-03-21 19:02:00,
2013-03-21 14:07:00,70.6,56.0,29.67,South,185,8.0,19.0,60,0.00,,,0.00,Wunderground v.1.15,2013-03-21 19:07:00,
2013-03-21 14:08:00,70.4,55.4,29.67,South,188,8.0,19.0,59,0.00,,,0.00,Wunderground v.1.15,2013-03-21 19:08:00,
2013-03-21 14:12:00,70.3,55.8,29.67,SE,145,9.0,17.0,60,0.00,,,0.00,Wunderground v.1.15,2013-03-21 19:12:00,
2013-03-21 14:14:00,70.3,55.8,29.67,South,169,9.0,17.0,60,0.00,,,0.00,Wunderground v.1.15,2013-03-21 19:14:00,
2013-03-21 14:17:00,70.4,55.4,29.66,South,186,10.0,17.0,59,0.00,,,0.00,Wunderground v.1.15,2013-03-21 19:17:00,
2013-03-21 14:18:00,70.6,56.0,29.66,SW,222,10.0,17.0,60,0.00,,,0.00,Wunderground v.1.15,2013-03-21 19:18:00,
2013-03-21 14:19:00,70.6,55.6,29.66,WSW,241,10.0,17.0,59,0.00,,,0.00,Wunderground v.1.15,2013-03-21 19:19:00,
2013-03-21 14:24:00,70.8,56.2,29.66,SSE,165,9.0,21.0,60,0.00,,,0.00,Wunderground v.1.15,2013-03-21 19:24:00,
2013-03-21 14:25:00,70.8,55.8,29.66,SW,230,9.0,21.0,59,0.00,,,0.00,Wunderground v.1.15,2013-03-21 19:25:00,
2013-03-21 14:27:00,70.9,55.9,29.66,SW,223,9.0,21.0,59,0.00,,,0.00,Wunderground v.1.15,2013-03-21 19:27:00,
2013-03-21 14:29:00,71.1,56.0,29.66,SSE,158,8.0,21.0,59,0.00,,,0.00,Wunderground v.1.15,2013-03-21 19:29:00,
2013-03-21 14:31:00,71.1,56.0,29.64,SSW,199,8.0,20.0,59,0.00,,,0.00,Wunderground v.1.15,2013-03-21 19:31:00,
2013-03-21 14:32:00,71.1,56.0,29.64,SSE,168,9.0,20.0,59,0.00,,,0.00,Wunderground v.1.15,2013-03-21 19:32:00,
2013-03-21 14:33:00,71.1,56.0,29.64,South,175,9.0,20.0,59,0.00,,,0.00,Wunderground v.1.15,2013-03-21 19:33:00,
2013-03-21 14:37:00,71.3,56.2,29.64,South,189,8.0,20.0,59,0.00,,,0.00,Wunderground v.1.15,2013-03-21 19:37:00,
2013-03-21 14:38:00,71.5,56.4,29.64,SSE,148,8.0,20.0,59,0.00,,,0.00,Wunderground v.1.15,2013-03-21 19:38:00,
2013-03-21 14:39:00,71.5,56.4,29.64,SSW,195,8.0,20.0,59,0.00,,,0.00,Wunderground v.1.15,2013-03-21 19:39:00,
2013-03-21 14:43:00,71.3,56.2,29.64,SSW,213,8.0,18.0,59,0.00,,,0.00,Wunderground v.1.15,2013-03-21 19:43:00,
2013-03-21 14:44:00,71.3,56.2,29.64,SSW,193,8.0,18.0,59,0.00,,,0.00,Wunderground v.1.15,2013-03-21 19:44:00,
2013-03-21 14:48:00,71.3,56.2,29.64,WSW,254,8.0,18.0,59,0.00,,,0.00,Wunderground v.1.15,2013-03-21 19:48:00,
2013-03-21 14:49:00,71.3,56.2,29.64,SSW,210,8.0,18.0,59,0.00,,,0.00,Wunderground v.1.15,2013-03-21 19:49:00,
2013-03-21 14:52:00,71.1,56.0,29.64,South,182,8.0,24.0,59,0.00,,,0.00,Wunderground v.1.15,2013-03-21 19:52:00,
2013-03-21 14:54:00,70.9,55.9,29.64,SE,141,8.0,24.0,59,0.00,,,0.00,Wunderground v.1.15,2013-03-21 19:54:00,
2013-03-21 14:55:00,70.9,56.3,29.64,ESE,123,8.0,24.0,60,0.00,,,0.00,Wunderground v.1.15,2013-03-21 19:55:00,
2013-03-21 14:58:00,70.8,56.2,29.64,SSE,152,9.0,24.0,60,0.00,,,0.00,Wunderground v.1.15,2013-03-21 19:58:00,
2013-03-21 15:03:00,70.9,56.3,29.63,SSW,202,9.0,13.0,60,0.00,,,0.00,Wunderground v.1.15,2013-03-21 20:03:00,
2013-03-21 15:04:00,70.9,56.3,29.63,SSW,199,9.0,18.0,60,0.00,,,0.00,Wunderground v.1.15,2013-03-21 20:04:00,
2013-03-21 15:05:00,70.9,56.3,29.63,WSW,251,9.0,18.0,60,0.00,,,0.00,Wunderground v.1.15,2013-03-21 20:05:00,
2013-03-21 15:09:00,71.1,56.5,29.63,SSW,200,8.0,18.0,60,0.00,,,0.00,Wunderground v.1.15,2013-03-21 20:09:00,
2013-03-21 15:11:00,71.1,56.5,29.63,South,182,8.0,18.0,60,0.00,,,0.00,Wunderground v.1.15,2013-03-21 20:11:00,
2013-03-21 15:14:00,71.1,56.5,29.63,South,175,8.0,18.0,60,0.00,,,0.00,Wunderground v.1.15,2013-03-21 20:14:00,
2013-03-21 15:15:00,71.1,56.5,29.63,SSW,209,7.0,18.0,60,0.00,,,0.00,Wunderground v.1.15,2013-03-21 20:15:00,
2013-03-21 15:16:00,71.1,56.5,29.63,WSW,243,7.0,18.0,60,0.00,,,0.00,Wunderground v.1.15,2013-03-21 20:16:00,
2013-03-21 15:18:00,70.9,56.3,29.63,SSW,213,7.0,18.0,60,0.00,,,0.00,Wunderground v.1.15,2013-03-21 20:18:00,
2013-03-21 15:21:00,70.8,56.2,29.63,South,189,8.0,19.0,60,0.00,,,0.00,Wunderground v.1.15,2013-03-21 20:21:00,
2013-03-21 15:22:00,70.8,56.2,29.63,SSW,210,8.0,19.0,60,0.00,,,0.00,Wunderground v.1.15,2013-03-21 20:22:00,
2013-03-21 15:23:00,70.8,56.7,29.63,SW,230,8.0,19.0,61,0.00,,,0.00,Wunderground v.1.15,2013-03-21 20:23:00,
2013-03-21 15:27:00,70.9,56.8,29.63,SSW,209,9.0,19.0,61,0.00,,,0.00,Wunderground v.1.15,2013-03-21 20:27:00,
2013-03-21 15:28:00,70.9,56.3,29.63,South,188,9.0,19.0,60,0.00,,,0.00,Wunderground v.1.15,2013-03-21 20:28:00,
2013-03-21 15:31:00,71.3,56.7,29.61,South,184,8.0,19.0,60,0.00,,,0.00,Wunderground v.1.15,2013-03-21 20:31:00,
2013-03-21 15:33:00,71.5,56.9,29.61,SSE,157,8.0,18.0,60,0.00,,,0.00,Wunderground v.1.15,2013-03-21 20:33:00,
2013-03-21 15:34:00,71.5,56.4,29.61,South,188,9.0,18.0,59,0.00,,,0.00,Wunderground v.1.15,2013-03-21 20:34:00,
2013-03-21 15:39:00,71.6,57.0,29.61,South,172,9.0,18.0,60,0.00,,,0.00,Wunderground v.1.15,2013-03-21 20:39:00,
2013-03-21 15:40:00,71.5,56.9,29.61,South,181,9.0,18.0,60,0.00,,,0.00,Wunderground v.1.15,2013-03-21 20:40:00,
2013-03-21 15:45:00,71.6,57.0,29.61,South,189,8.0,16.0,60,0.00,,,0.00,Wunderground v.1.15,2013-03-21 20:45:00,
2013-03-21 15:47:00,71.5,56.9,29.59,SSW,200,9.0,16.0,60,0.00,,,0.00,Wunderground v.1.15,2013-03-21 20:47:00,
2013-03-21 15:48:00,71.5,56.9,29.59,South,188,9.0,16.0,60,0.00,,,0.00,Wunderground v.1.15,2013-03-21 20:48:00,
2013-03-21 15:49:00,71.5,56.9,29.59,SW,215,9.0,16.0,60,0.00,,,0.00,Wunderground v.1.15,2013-03-21 20:49:00,
2013-03-21 15:52:00,71.6,57.0,29.59,SW,215,9.0,12.0,60,0.00,,,0.00,Wunderground v.1.15,2013-03-21 20:52:00,
2013-03-21 15:54:00,71.6,57.0,29.59,SSW,210,10.0,20.0,60,0.00,,,0.00,Wunderground v.1.15,2013-03-21 20:54:00,
2013-03-21 15:57:00,72.0,56.9,29.59,South,171,9.0,20.0,59,0.00,,,0.00,Wunderground v.1.15,2013-03-21 20:57:00,
2013-03-21 15:58:00,72.1,57.0,29.59,South,191,9.0,20.0,59,0.00,,,0.00,Wunderground v.1.15,2013-03-21 20:58:00,
2013-03-21 16:01:00,72.5,56.9,29.59,SSE,168,8.0,10.0,58,0.00,,,0.00,Wunderground v.1.15,2013-03-21 21:01:00,
2013-03-21 16:04:00,72.1,56.5,29.59,South,184,7.0,19.0,58,0.00,,,0.00,Wunderground v.1.15,2013-03-21 21:04:00,
2013-03-21 16:07:00,71.8,57.2,29.59,SSW,193,8.0,19.0,60,0.00,,,0.00,Wunderground v.1.15,2013-03-21 21:07:00,
2013-03-21 16:09:00,71.8,57.2,29.59,SSE,157,8.0,19.0,60,0.00,,,0.00,Wunderground v.1.15,2013-03-21 21:09:00,
2013-03-21 16:10:00,72.0,57.4,29.59,SSW,196,8.0,20.0,60,0.00,,,0.00,Wunderground v.1.15,2013-03-21 21:10:00,
2013-03-21 16:12:00,72.0,56.9,29.59,South,185,9.0,20.0,59,0.00,,,0.00,Wunderground v.1.15,2013-03-21 21:12:00,
2013-03-21 16:15:00,71.8,57.2,29.59,SW,215,9.0,20.0,60,0.00,,,0.00,Wunderground v.1.15,2013-03-21 21:15:00,
2013-03-21 16:18:00,72.0,56.9,29.59,SW,234,9.0,20.0,59,0.00,,,0.00,Wunderground v.1.15,2013-03-21 21:18:00,
2013-03-21 16:22:00,72.1,57.0,29.59,South,169,9.0,18.0,59,0.00,,,0.00,Wunderground v.1.15,2013-03-21 21:22:00,
2013-03-21 16:24:00,72.1,57.0,29.59,SSW,198,9.0,18.0,59,0.00,,,0.00,Wunderground v.1.15,2013-03-21 21:24:00,
2013-03-21 16:25:00,72.1,57.0,29.59,SW,234,9.0,18.0,59,0.00,,,0.00,Wunderground v.1.15,2013-03-21 21:25:00,
2013-03-21 16:28:00,72.3,57.2,29.59,SSW,200,9.0,18.0,59,0.00,,,0.00,Wunderground v.1.15,2013-03-21 21:28:00,
2013-03-21 16:32:00,72.7,57.1,29.57,South,189,9.0,19.0,58,0.00,,,0.00,Wunderground v.1.15,2013-03-21 21:32:00,
2013-03-21 16:33:00,72.7,57.1,29.57,SSW,205,8.0,19.0,58,0.00,,,0.00,Wunderground v.1.15,2013-03-21 21:33:00,
2013-03-21 16:34:00,72.7,57.1,29.57,SSW,208,8.0,19.0,58,0.00,,,0.00,Wunderground v.1.15,2013-03-21 21:34:00,
2013-03-21 16:39:00,72.8,57.2,29.57,South,176,8.0,19.0,58,0.00,,,0.00,Wunderground v.1.15,2013-03-21 21:39:00,
2013-03-21 16:41:00,72.8,57.2,29.57,SW,223,8.0,8.0,58,0.00,,,0.00,Wunderground v.1.15,2013-03-21 21:41:00,
2013-03-21 16:44:00,73.0,57.3,29.57,SSW,213,7.0,18.0,58,0.00,,,0.00,Wunderground v.1.15,2013-03-21 21:44:00,
2013-03-21 16:45:00,73.0,57.3,29.57,SW,233,7.0,18.0,58,0.00,,,0.00,Wunderground v.1.15,2013-03-21 21:45:00,
2013-03-21 16:47:00,73.0,57.3,29.56,SW,236,7.0,18.0,58,0.00,,,0.00,Wunderground v.1.15,2013-03-21 21:47:00,
2013-03-21 16:49:00,73.0,57.3,29.56,SW,219,7.0,18.0,58,0.00,,,0.00,Wunderground v.1.15,2013-03-21 21:49:00,
2013-03-21 16:50:00,73.0,57.3,29.56,SSW,206,6.0,17.0,58,0.00,,,0.00,Wunderground v.1.15,2013-03-21 21:50:00,
2013-03-21 16:54:00,73.0,57.3,29.56,SSW,192,7.0,17.0,58,0.00,,,0.00,Wunderground v.1.15,2013-03-21 21:54:00,
2013-03-21 16:55:00,73.0,57.3,29.56,South,179,7.0,17.0,58,0.00,,,0.00,Wunderground v.1.15,2013-03-21 21:55:00,
2013-03-21 16:59:00,73.0,57.3,29.56,SSW,212,8.0,17.0,58,0.00,,,0.00,Wunderground v.1.15,2013-03-21 21:59:00,
2013-03-21 17:01:00,73.3,57.6,29.56,SSE,165,8.0,14.0,58,0.00,,,0.00,Wunderground v.1.15,2013-03-21 22:01:00,
2013-03-21 17:02:00,73.5,57.8,29.56,SW,223,8.0,14.0,58,0.00,,,0.00,Wunderground v.1.15,2013-03-21 22:02:00,
2013-03-21 17:05:00,73.9,57.7,29.56,South,191,7.0,14.0,57,0.00,,,0.00,Wunderground v.1.15,2013-03-21 22:05:00,
2013-03-21 17:06:00,73.9,57.7,29.56,SW,227,7.0,14.0,57,0.00,,,0.00,Wunderground v.1.15,2013-03-21 22:06:00,
2013-03-21 17:09:00,74.2,57.5,29.56,SSW,203,6.0,14.0,56,0.00,,,0.00,Wunderground v.1.15,2013-03-21 22:09:00,
2013-03-21 17:12:00,74.4,57.7,29.56,SW,223,8.0,19.0,56,0.00,,,0.00,Wunderground v.1.15,2013-03-21 22:12:00,
2013-03-21 17:13:00,74.4,57.7,29.56,SW,222,8.0,19.0,56,0.00,,,0.00,Wunderground v.1.15,2013-03-21 22:13:00,
2013-03-21 17:14:00,74.4,57.7,29.56,SSW,193,8.0,19.0,56,0.00,,,0.00,Wunderground v.1.15,2013-03-21 22:14:00,
2013-03-21 17:17:00,74.2,57.5,29.56,SW,233,8.0,19.0,56,0.00,,,0.00,Wunderground v.1.15,2013-03-21 22:17:00,
2013-03-21 17:21:00,73.7,58.0,29.56,SE,143,8.0,8.0,58,0.00,,,0.00,Wunderground v.1.15,2013-03-21 22:21:00,
2013-03-21 17:23:00,73.5,57.8,29.56,SSW,198,8.0,18.0,58,0.00,,,0.00,Wunderground v.1.15,2013-03-21 22:23:00,
2013-03-21 17:27:00,73.5,57.8,29.56,SSE,161,8.0,18.0,58,0.00,,,0.00,Wunderground v.1.15,2013-03-21 22:27:00,
2013-03-21 17:28:00,73.5,57.8,29.56,South,185,8.0,18.0,58,0.00,,,0.00,Wunderground v.1.15,2013-03-21 22:28:00,
2013-03-21 17:32:00,73.5,57.8,29.55,South,181,8.0,18.0,58,0.00,,,0.00,Wunderground v.1.15,2013-03-21 22:32:00,
2013-03-21 17:33:00,73.5,57.8,29.55,South,189,7.0,18.0,58,0.00,,,0.00,Wunderground v.1.15,2013-03-21 22:33:00,
2013-03-21 17:34:00,73.7,58.0,29.55,SSW,199,7.0,18.0,58,0.00,,,0.00,Wunderground v.1.15,2013-03-21 22:34:00,
2013-03-21 17:36:00,73.7,58.0,29.55,WSW,244,7.0,18.0,58,0.00,,,0.00,Wunderground v.1.15,2013-03-21 22:36:00,
2013-03-21 17:37:00,73.7,58.0,29.55,SW,215,7.0,18.0,58,0.00,,,0.00,Wunderground v.1.15,2013-03-21 22:37:00,
2013-03-21 17:38:00,73.7,58.0,29.55,SSW,196,7.0,18.0,58,0.00,,,0.00,Wunderground v.1.15,2013-03-21 22:38:00,
2013-03-21 17:41:00,73.5,57.8,29.55,SSW,209,7.0,16.0,58,0.00,,,0.00,Wunderground v.1.15,2013-03-21 22:41:00,
2013-03-21 17:44:00,73.3,58.1,29.55,SSW,192,8.0,16.0,59,0.00,,,0.00,Wunderground v.1.15,2013-03-21 22:44:00,
2013-03-21 17:46:00,73.3,58.1,29.55,South,189,8.0,16.0,59,0.00,,,0.00,Wunderground v.1.15,2013-03-21 22:46:00,
2013-03-21 17:48:00,73.3,58.1,29.55,WSW,237,8.0,16.0,59,0.00,,,0.00,Wunderground v.1.15,2013-03-21 22:48:00,
2013-03-21 17:51:00,73.3,58.1,29.55,South,181,7.0,18.0,59,0.00,,,0.00,Wunderground v.1.15,2013-03-21 22:51:00,
2013-03-21 17:53:00,73.3,58.1,29.55,SSW,206,7.0,18.0,59,0.00,,,0.00,Wunderground v.1.15,2013-03-21 22:53:00,
2013-03-21 17:57:00,73.3,58.6,29.55,South,189,7.0,18.0,60,0.00,,,0.00,Wunderground v.1.15,2013-03-21 22:57:00,
2013-03-21 17:58:00,73.5,58.8,29.55,South,189,6.0,18.0,60,0.00,,,0.00,Wunderground v.1.15,2013-03-21 22:58:00,
2013-03-21 17:59:00,73.5,58.3,29.55,SSW,193,6.0,18.0,59,0.00,,,0.00,Wunderground v.1.15,2013-03-21 22:59:00,
2013-03-21 18:03:00,73.5,58.3,29.54,SSW,192,6.0,18.0,59,0.00,,,0.00,Wunderground v.1.15,2013-03-21 23:03:00,
2013-03-21 18:04:00,73.5,58.3,29.54,SW,217,6.0,18.0,59,0.00,,,0.00,Wunderground v.1.15,2013-03-21 23:04:00,
2013-03-21 18:05:00,73.5,58.3,29.54,South,185,6.0,18.0,59,0.00,,,0.00,Wunderground v.1.15,2013-03-21 23:05:00,
2013-03-21 18:11:00,73.2,58.5,29.54,SSW,195,7.0,13.0,60,0.00,,,0.00,Wunderground v.1.15,2013-03-21 23:11:00,
2013-03-21 18:12:00,73.2,58.5,29.54,SSW,196,7.0,14.0,60,0.00,,,0.00,Wunderground v.1.15,2013-03-21 23:12:00,
2013-03-21 18:17:00,73.2,58.5,29.54,SSW,202,6.0,16.0,60,0.00,,,0.00,Wunderground v.1.15,2013-03-21 23:17:00,
2013-03-21 18:18:00,73.2,58.5,29.54,South,189,6.0,16.0,60,0.00,,,0.00,Wunderground v.1.15,2013-03-21 23:18:00,
2013-03-21 18:21:00,73.2,58.5,29.54,South,185,7.0,7.0,60,0.00,,,0.00,Wunderground v.1.15,2013-03-21 23:21:00,
2013-03-21 18:23:00,73.2,58.5,29.54,SSW,208,7.0,16.0,60,0.00,,,0.00,Wunderground v.1.15,2013-03-21 23:23:00,
2013-03-21 18:25:00,73.2,58.5,29.54,SW,226,7.0,16.0,60,0.00,,,0.00,Wunderground v.1.15,2013-03-21 23:25:00,
2013-03-21 18:26:00,73.2,58.5,29.54,SSW,200,7.0,16.0,60,0.00,,,0.00,Wunderground v.1.15,2013-03-21 23:26:00,
2013-03-21 18:28:00,73.2,58.5,29.54,SSW,202,7.0,16.0,60,0.00,,,0.00,Wunderground v.1.15,2013-03-21 23:28:00,
2013-03-21 18:31:00,73.2,58.5,29.54,South,186,6.0,17.0,60,0.00,,,0.00,Wunderground v.1.15,2013-03-21 23:31:00,
2013-03-21 18:32:00,73.2,58.5,29.54,SSE,167,7.0,17.0,60,0.00,,,0.00,Wunderground v.1.15,2013-03-21 23:32:00,
2013-03-21 18:34:00,73.2,58.5,29.54,SSW,206,7.0,17.0,60,0.00,,,0.00,Wunderground v.1.15,2013-03-21 23:34:00,
2013-03-21 18:37:00,73.2,58.5,29.54,SSW,208,7.0,17.0,60,0.00,,,0.00,Wunderground v.1.15,2013-03-21 23:37:00,
2013-03-21 18:39:00,73.2,58.5,29.54,SSW,199,8.0,17.0,60,0.00,,,0.00,Wunderground v.1.15,2013-03-21 23:39:00,
2013-03-21 18:42:00,73.2,58.5,29.54,SSW,213,8.0,16.0,60,0.00,,,0.00,Wunderground v.1.15,2013-03-21 23:42:00,
2013-03-21 18:43:00,73.2,58.5,29.54,SSW,199,8.0,16.0,60,0.00,,,0.00,Wunderground v.1.15,2013-03-21 23:43:00,
2013-03-21 18:45:00,73.0,58.3,29.54,South,185,9.0,16.0,60,0.00,,,0.00,Wunderground v.1.15,2013-03-21 23:45:00,
2013-03-21 18:48:00,73.0,58.8,29.53,SW,226,8.0,16.0,61,0.00,,,0.00,Wunderground v.1.15,2013-03-21 23:48:00,
2013-03-21 18:51:00,72.8,58.6,29.53,South,171,8.0,16.0,61,0.00,,,0.00,Wunderground v.1.15,2013-03-21 23:51:00,
2013-03-21 18:53:00,72.7,58.5,29.53,South,179,8.0,14.0,61,0.00,,,0.00,Wunderground v.1.15,2013-03-21 23:53:00,
2013-03-21 18:56:00,72.7,58.5,29.53,SSW,205,7.0,14.0,61,0.00,,,0.00,Wunderground v.1.15,2013-03-21 23:56:00,
2013-03-21 18:58:00,72.7,58.9,29.53,South,182,7.0,14.0,62,0.00,,,0.00,Wunderground v.1.15,2013-03-21 23:58:00,
2013-03-21 18:59:00,72.7,58.5,29.53,SSE,161,7.0,14.0,61,0.00,,,0.00,Wunderground v.1.15,2013-03-21 23:59:00,
2013-03-21 19:02:00,72.7,58.5,29.54,SSW,195,7.0,18.0,61,0.00,,,0.00,Wunderground v.1.15,2013-03-22 00:02:00,
2013-03-21 19:03:00,72.7,58.5,29.54,SSE,155,7.0,18.0,61,0.00,,,0.00,Wunderground v.1.15,2013-03-22 00:03:00,
2013-03-21 19:04:00,72.7,58.5,29.54,South,176,6.0,18.0,61,0.00,,,0.00,Wunderground v.1.15,2013-03-22 00:04:00,
2013-03-21 19:05:00,72.7,58.5,29.54,SSE,154,7.0,18.0,61,0.00,,,0.00,Wunderground v.1.15,2013-03-22 00:05:00,
2013-03-21 19:09:00,72.7,58.5,29.54,SSW,195,8.0,18.0,61,0.00,,,0.00,Wunderground v.1.15,2013-03-22 00:09:00,
2013-03-21 19:11:00,72.7,58.5,29.54,SSW,208,7.0,19.0,61,0.00,,,0.00,Wunderground v.1.15,2013-03-22 00:11:00,
2013-03-21 19:12:00,72.7,58.9,29.54,South,182,8.0,19.0,62,0.00,,,0.00,Wunderground v.1.15,2013-03-22 00:12:00,
2013-03-21 19:14:00,72.7,58.9,29.54,SSW,198,8.0,19.0,62,0.00,,,0.00,Wunderground v.1.15,2013-03-22 00:14:00,
2013-03-21 19:15:00,72.5,58.7,29.54,SW,216,8.0,19.0,62,0.00,,,0.00,Wunderground v.1.15,2013-03-22 00:15:00,
2013-03-21 19:17:00,72.5,58.7,29.54,SSW,209,7.0,19.0,62,0.00,,,0.00,Wunderground v.1.15,2013-03-22 00:17:00,
2013-03-21 19:21:00,72.3,58.5,29.54,SSW,200,6.0,17.0,62,0.00,,,0.00,Wunderground v.1.15,2013-03-22 00:21:00,
2013-03-21 19:23:00,72.3,58.5,29.54,WSW,246,5.0,17.0,62,0.00,,,0.00,Wunderground v.1.15,2013-03-22 00:23:00,
2013-03-21 19:24:00,72.3,58.5,29.54,South,171,5.0,17.0,62,0.00,,,0.00,Wunderground v.1.15,2013-03-22 00:24:00,
2013-03-21 19:28:00,72.1,58.4,29.54,SSW,198,6.0,17.0,62,0.00,,,0.00,Wunderground v.1.15,2013-03-22 00:28:00,
2013-03-21 19:29:00,72.1,58.4,29.54,SSE,161,6.0,17.0,62,0.00,,,0.00,Wunderground v.1.15,2013-03-22 00:29:00,
2013-03-21 19:34:00,72.0,58.7,29.54,SSW,205,6.0,14.0,63,0.00,,,0.00,Wunderground v.1.15,2013-03-22 00:34:00,
2013-03-21 19:35:00,72.0,58.7,29.54,South,186,6.0,14.0,63,0.00,,,0.00,Wunderground v.1.15,2013-03-22 00:35:00,
2013-03-21 19:38:00,72.0,58.7,29.54,South,189,5.0,14.0,63,0.00,,,0.00,Wunderground v.1.15,2013-03-22 00:38:00,
2013-03-21 19:39:00,71.8,58.5,29.54,SSW,212,5.0,14.0,63,0.00,,,0.00,Wunderground v.1.15,2013-03-22 00:39:00,
2013-03-21 19:42:00,71.8,58.5,29.54,SSW,209,6.0,16.0,63,0.00,,,0.00,Wunderground v.1.15,2013-03-22 00:42:00,
2013-03-21 19:44:00,71.8,58.5,29.54,SSW,210,6.0,16.0,63,0.00,,,0.00,Wunderground v.1.15,2013-03-22 00:44:00,
2013-03-21 19:46:00,71.6,58.3,29.54,South,181,6.0,16.0,63,0.00,,,0.00,Wunderground v.1.15,2013-03-22 00:46:00,
2013-03-21 19:49:00,71.6,58.8,29.54,SSW,195,6.0,16.0,64,0.00,,,0.00,Wunderground v.1.15,2013-03-22 00:49:00,
2013-03-21 19:51:00,71.5,58.7,29.54,South,188,6.0,6.0,64,0.00,,,0.00,Wunderground v.1.15,2013-03-22 00:51:00,
2013-03-21 19:52:00,71.5,58.7,29.54,SSE,154,6.0,10.0,64,0.00,,,0.00,Wunderground v.1.15,2013-03-22 00:52:00,
2013-03-21 19:55:00,71.5,58.7,29.54,SSW,209,6.0,14.0,64,0.00,,,0.00,Wunderground v.1.15,2013-03-22 00:55:00,
2013-03-21 19:58:00,71.3,58.5,29.54,South,169,5.0,14.0,64,0.00,,,0.00,Wunderground v.1.15,2013-03-22 00:58:00,
2013-03-21 19:59:00,71.3,58.5,29.54,SSW,208,5.0,14.0,64,0.00,,,0.00,Wunderground v.1.15,2013-03-22 00:59:00,
2013-03-21 20:02:00,71.1,58.7,29.55,South,174,6.0,16.0,65,0.00,,,0.00,Wunderground v.1.15,2013-03-22 01:02:00,
2013-03-21 20:04:00,71.1,58.7,29.55,SSW,199,5.0,16.0,65,0.00,,,0.00,Wunderground v.1.15,2013-03-22 01:04:00,
2013-03-21 20:05:00,71.1,58.7,29.55,South,181,5.0,16.0,65,0.00,,,0.00,Wunderground v.1.15,2013-03-22 01:05:00,
2013-03-21 20:07:00,71.1,58.7,29.55,South,178,6.0,16.0,65,0.00,,,0.00,Wunderground v.1.15,2013-03-22 01:07:00,
2013-03-21 20:11:00,70.9,58.5,29.55,South,184,5.0,16.0,65,0.00,,,0.00,Wunderground v.1.15,2013-03-22 01:11:00,
2013-03-21 20:12:00,70.9,58.5,29.55,South,184,5.0,16.0,65,0.00,,,0.00,Wunderground v.1.15,2013-03-22 01:12:00,
2013-03-21 20:13:00,70.9,58.5,29.55,South,185,4.0,16.0,65,0.00,,,0.00,Wunderground v.1.15,2013-03-22 01:13:00,
2013-03-21 20:15:00,70.9,58.5,29.55,South,184,4.0,16.0,65,0.00,,,0.00,Wunderground v.1.15,2013-03-22 01:15:00,
2013-03-21 20:16:00,70.9,58.5,29.55,South,184,4.0,16.0,65,0.00,,,0.00,Wunderground v.1.15,2013-03-22 01:16:00,
2013-03-21 20:19:00,70.8,58.4,29.55,SSW,203,3.0,16.0,65,0.00,,,0.00,Wunderground v.1.15,2013-03-22 01:19:00,
2013-03-21 20:21:00,70.8,58.4,29.55,South,185,4.0,13.0,65,0.00,,,0.00,Wunderground v.1.15,2013-03-22 01:21:00,
2013-03-21 20:23:00,70.8,58.9,29.55,South,185,4.0,13.0,66,0.00,,,0.00,Wunderground v.1.15,2013-03-22 01:23:00,
2013-03-21 20:24:00,70.8,58.9,29.55,South,185,3.0,13.0,66,0.00,,,0.00,Wunderground v.1.15,2013-03-22 01:24:00,
2013-03-21 20:25:00,70.8,58.9,29.55,South,186,3.0,13.0,66,0.00,,,0.00,Wunderground v.1.15,2013-03-22 01:25:00,
2013-03-21 20:29:00,70.8,58.9,29.55,South,184,4.0,13.0,66,0.00,,,0.00,Wunderground v.1.15,2013-03-22 01:29:00,
2013-03-21 20:31:00,70.6,58.7,29.56,South,184,4.0,13.0,66,0.00,,,0.00,Wunderground v.1.15,2013-03-22 01:31:00,
2013-03-21 20:34:00,70.6,58.7,29.56,South,186,4.0,8.0,66,0.00,,,0.00,Wunderground v.1.15,2013-03-22 01:34:00,
2013-03-21 20:37:00,70.6,58.7,29.56,SSW,202,4.0,8.0,66,0.00,,,0.00,Wunderground v.1.15,2013-03-22 01:37:00,
2013-03-21 20:41:00,70.6,58.7,29.56,South,185,5.0,5.0,66,0.00,,,0.00,Wunderground v.1.15,2013-03-22 01:41:00,
2013-03-21 20:43:00,70.6,58.7,29.56,SSW,203,5.0,10.0,66,0.00,,,0.00,Wunderground v.1.15,2013-03-22 01:43:00,
2013-03-21 20:45:00,70.6,58.7,29.56,South,181,6.0,11.0,66,0.00,,,0.00,Wunderground v.1.15,2013-03-22 01:45:00,
2013-03-21 20:46:00,70.6,58.7,29.57,South,185,6.0,11.0,66,0.00,,,0.00,Wunderground v.1.15,2013-03-22 01:46:00,
2013-03-21 20:48:00,70.6,59.1,29.57,South,189,6.0,11.0,67,0.00,,,0.00,Wunderground v.1.15,2013-03-22 01:48:00,
2013-03-21 20:51:00,70.4,58.9,29.57,South,189,6.0,6.0,67,0.00,,,0.00,Wunderground v.1.15,2013-03-22 01:51:00,
2013-03-21 20:52:00,70.4,58.9,29.57,South,175,6.0,8.0,67,0.00,,,0.00,Wunderground v.1.15,2013-03-22 01:52:00,
2013-03-21 20:57:00,70.4,58.9,29.57,South,181,6.0,13.0,67,0.00,,,0.00,Wunderground v.1.15,2013-03-22 01:57:00,
2013-03-21 20:58:00,70.4,58.9,29.57,South,185,6.0,13.0,67,0.00,,,0.00,Wunderground v.1.15,2013-03-22 01:58:00,
2013-03-21 21:03:00,70.3,58.8,29.57,South,178,5.0,14.0,67,0.00,,,0.00,Wunderground v.1.15,2013-03-22 02:03:00,
2013-03-21 21:04:00,70.3,58.8,29.57,SSW,200,5.0,14.0,67,0.00,,,0.00,Wunderground v.1.15,2013-03-22 02:04:00,
2013-03-21 21:05:00,70.3,58.8,29.57,SSE,160,5.0,14.0,67,0.00,,,0.00,Wunderground v.1.15,2013-03-22 02:05:00,
2013-03-21 21:06:00,70.3,58.8,29.57,SSE,162,5.0,14.0,67,0.00,,,0.00,Wunderground v.1.15,2013-03-22 02:06:00,
2013-03-21 21:08:00,70.3,59.2,29.57,SSE,150,5.0,14.0,68,0.00,,,0.00,Wunderground v.1.15,2013-03-22 02:08:00,
2013-03-21 21:11:00,70.1,59.0,29.57,South,172,5.0,13.0,68,0.00,,,0.00,Wunderground v.1.15,2013-03-22 02:11:00,
2013-03-21 21:13:00,69.9,59.3,29.57,South,181,6.0,13.0,69,0.00,,,0.00,Wunderground v.1.15,2013-03-22 02:13:00,
2013-03-21 21:14:00,69.8,59.2,29.57,South,182,6.0,13.0,69,0.00,,,0.00,Wunderground v.1.15,2013-03-22 02:14:00,
2013-03-21 21:17:00,69.6,59.4,29.57,SE,136,6.0,13.0,70,0.00,,,0.00,Wunderground v.1.15,2013-03-22 02:17:00,
2013-03-21 21:19:00,69.4,59.2,29.57,South,171,6.0,13.0,70,0.00,,,0.00,Wunderground v.1.15,2013-03-22 02:19:00,
2013-03-21 21:21:00,69.3,59.1,29.57,SSE,154,7.0,13.0,70,0.00,,,0.00,Wunderground v.1.15,2013-03-22 02:21:00,
2013-03-21 21:22:00,69.3,59.1,29.57,ESE,121,6.0,13.0,70,0.00,,,0.00,Wunderground v.1.15,2013-03-22 02:22:00,
2013-03-21 21:23:00,69.1,59.3,29.57,South,189,6.0,13.0,71,0.00,,,0.00,Wunderground v.1.15,2013-03-22 02:23:00,
2013-03-21 21:27:00,68.9,59.1,29.57,South,185,6.0,13.0,71,0.00,,,0.00,Wunderground v.1.15,2013-03-22 02:27:00,
2013-03-21 21:28:00,68.9,59.1,29.57,South,186,6.0,13.0,71,0.00,,,0.00,Wunderground v.1.15,2013-03-22 02:28:00,
2013-03-21 21:32:00,68.8,59.4,29.57,SE,144,5.0,13.0,72,0.00,,,0.00,Wunderground v.1.15,2013-03-22 02:32:00,
2013-03-21 21:34:00,68.8,59.4,29.57,South,181,5.0,13.0,72,0.00,,,0.00,Wunderground v.1.15,2013-03-22 02:34:00,
2013-03-21 21:37:00,68.6,59.2,29.57,South,181,5.0,13.0,72,0.00,,,0.00,Wunderground v.1.15,2013-03-22 02:37:00,
2013-03-21 21:42:00,68.6,59.2,29.57,SSE,168,7.0,12.0,72,0.00,,,0.00,Wunderground v.1.15,2013-03-22 02:42:00,
2013-03-21 21:44:00,68.4,59.0,29.57,South,181,8.0,12.0,72,0.00,,,0.00,Wunderground v.1.15,2013-03-22 02:44:00,
2013-03-21 21:49:00,68.4,59.0,29.57,SE,144,8.0,12.0,72,0.00,,,0.00,Wunderground v.1.15,2013-03-22 02:49:00,
2013-03-21 21:52:00,68.3,59.3,29.57,South,176,7.0,7.0,73,0.00,,,0.00,Wunderground v.1.15,2013-03-22 02:52:00,
2013-03-21 21:54:00,68.3,59.3,29.57,South,174,7.0,17.0,73,0.00,,,0.00,Wunderground v.1.15,2013-03-22 02:54:00,
2013-03-21 21:59:00,68.1,59.1,29.57,SSW,192,7.0,17.0,73,0.00,,,0.00,Wunderground v.1.15,2013-03-22 02:59:00,
2013-03-21 22:01:00,68.1,59.1,29.58,SSW,202,7.0,13.0,73,0.00,,,0.00,Wunderground v.1.15,2013-03-22 03:01:00,
2013-03-21 22:02:00,68.1,59.1,29.58,SSE,164,7.0,19.0,73,0.00,,,0.00,Wunderground v.1.15,2013-03-22 03:02:00,
2013-03-21 22:03:00,68.1,59.1,29.58,SSW,206,7.0,19.0,73,0.00,,,0.00,Wunderground v.1.15,2013-03-22 03:03:00,
2013-03-21 22:05:00,68.1,59.1,29.58,South,171,8.0,19.0,73,0.00,,,0.00,Wunderground v.1.15,2013-03-22 03:05:00,
2013-03-21 22:07:00,68.1,59.1,29.58,SE,140,7.0,19.0,73,0.00,,,0.00,Wunderground v.1.15,2013-03-22 03:07:00,
2013-03-21 22:08:00,67.9,58.9,29.58,SSW,202,7.0,19.0,73,0.00,,,0.00,Wunderground v.1.15,2013-03-22 03:08:00,
2013-03-21 22:13:00,67.9,58.9,29.58,South,185,6.0,14.0,73,0.00,,,0.00,Wunderground v.1.15,2013-03-22 03:13:00,
2013-03-21 22:14:00,67.9,58.9,29.58,SSE,150,6.0,14.0,73,0.00,,,0.00,Wunderground v.1.15,2013-03-22 03:14:00,
2013-03-21 22:16:00,67.8,59.2,29.58,South,174,6.0,14.0,74,0.00,,,0.00,Wunderground v.1.15,2013-03-22 03:16:00,
2013-03-21 22:18:00,67.8,59.2,29.58,SSW,198,6.0,14.0,74,0.00,,,0.00,Wunderground v.1.15,2013-03-22 03:18:00,
2013-03-21 22:19:00,67.6,59.0,29.58,South,172,6.0,14.0,74,0.00,,,0.00,Wunderground v.1.15,2013-03-22 03:19:00,
2013-03-21 22:21:00,67.6,59.0,29.58,SE,136,6.0,6.0,74,0.00,,,0.00,Wunderground v.1.15,2013-03-22 03:21:00,
2013-03-21 22:24:00,67.4,58.8,29.58,SSE,168,5.0,16.0,74,0.00,,,0.00,Wunderground v.1.15,2013-03-22 03:24:00,
2013-03-21 22:26:00,67.4,59.2,29.58,South,181,5.0,16.0,75,0.00,,,0.00,Wunderground v.1.15,2013-03-22 03:26:00,
2013-03-21 22:27:00,67.4,59.2,29.58,South,172,5.0,16.0,75,0.00,,,0.00,Wunderground v.1.15,2013-03-22 03:27:00,
2013-03-21 22:28:00,67.3,59.1,29.58,South,176,5.0,16.0,75,0.00,,,0.00,Wunderground v.1.15,2013-03-22 03:28:00,
2013-03-21 22:32:00,67.1,58.9,29.58,South,169,5.0,8.0,75,0.00,,,0.00,Wunderground v.1.15,2013-03-22 03:32:00,
2013-03-21 22:33:00,67.1,58.9,29.58,South,181,5.0,12.0,75,0.00,,,0.00,Wunderground v.1.15,2013-03-22 03:33:00,
2013-03-21 22:37:00,66.9,59.1,29.58,South,179,4.0,12.0,76,0.00,,,0.00,Wunderground v.1.15,2013-03-22 03:37:00,
2013-03-21 22:38:00,66.9,59.1,29.58,SE,140,4.0,12.0,76,0.00,,,0.00,Wunderground v.1.15,2013-03-22 03:38:00,
2013-03-21 22:39:00,66.9,59.1,29.58,SSE,158,5.0,12.0,76,0.00,,,0.00,Wunderground v.1.15,2013-03-22 03:39:00,
2013-03-21 22:42:00,66.8,59.0,29.58,South,188,6.0,11.0,76,0.00,,,0.00,Wunderground v.1.15,2013-03-22 03:42:00,
2013-03-21 22:45:00,66.8,59.4,29.58,SSE,157,8.0,12.0,77,0.00,,,0.00,Wunderground v.1.15,2013-03-22 03:45:00,
2013-03-21 22:46:00,66.6,59.2,29.59,South,191,8.0,12.0,77,0.00,,,0.00,Wunderground v.1.15,2013-03-22 03:46:00,
2013-03-21 22:48:00,66.6,59.2,29.59,SSE,154,8.0,12.0,77,0.00,,,0.00,Wunderground v.1.15,2013-03-22 03:48:00,
2013-03-21 22:51:00,66.4,59.3,29.59,SSE,168,8.0,8.0,78,0.00,,,0.00,Wunderground v.1.15,2013-03-22 03:51:00,
2013-03-21 22:54:00,66.3,59.2,29.59,SSW,210,7.0,17.0,78,0.00,,,0.00,Wunderground v.1.15,2013-03-22 03:54:00,
2013-03-21 22:55:00,66.3,59.2,29.59,SSE,167,6.0,17.0,78,0.00,,,0.00,Wunderground v.1.15,2013-03-22 03:55:00,
2013-03-21 22:56:00,66.3,59.2,29.59,South,176,6.0,17.0,78,0.00,,,0.00,Wunderground v.1.15,2013-03-22 03:56:00,
2013-03-21 22:57:00,66.3,59.6,29.59,South,172,6.0,17.0,79,0.00,,,0.00,Wunderground v.1.15,2013-03-22 03:57:00,
2013-03-21 23:01:00,66.1,59.4,29.58,South,188,6.0,21.0,79,0.00,,,0.00,Wunderground v.1.15,2013-03-22 04:01:00,
2013-03-21 23:02:00,66.0,59.3,29.58,SE,127,6.0,21.0,79,0.00,,,0.00,Wunderground v.1.15,2013-03-22 04:02:00,
2013-03-21 23:05:00,66.0,59.7,29.58,SSW,192,6.0,21.0,80,0.00,,,0.00,Wunderground v.1.15,2013-03-22 04:05:00,
2013-03-21 23:06:00,65.8,59.5,29.58,South,178,7.0,21.0,80,0.00,,,0.00,Wunderground v.1.15,2013-03-22 04:06:00,
2013-03-21 23:08:00,65.8,59.5,29.58,South,171,6.0,21.0,80,0.00,,,0.00,Wunderground v.1.15,2013-03-22 04:08:00,
2013-03-21 23:11:00,65.8,59.5,29.58,South,172,6.0,14.0,80,0.00,,,0.00,Wunderground v.1.15,2013-03-22 04:11:00,
2013-03-21 23:13:00,65.6,59.6,29.58,SSE,158,7.0,14.0,81,0.00,,,0.00,Wunderground v.1.15,2013-03-22 04:13:00,
2013-03-21 23:18:00,65.6,59.6,29.57,SSW,200,7.0,14.0,81,0.00,,,0.00,Wunderground v.1.15,2013-03-22 04:18:00,
2013-03-21 23:19:00,65.6,59.6,29.57,SSE,154,7.0,14.0,81,0.00,,,0.00,Wunderground v.1.15,2013-03-22 04:19:00,
2013-03-21 23:21:00,65.6,59.6,29.57,South,172,6.0,6.0,81,0.00,,,0.00,Wunderground v.1.15,2013-03-22 04:21:00,
2013-03-21 23:26:00,65.6,60.0,29.57,SSE,157,5.0,14.0,82,0.00,,,0.00,Wunderground v.1.15,2013-03-22 04:26:00,
2013-03-21 23:28:00,65.6,60.0,29.57,SSW,195,5.0,14.0,82,0.00,,,0.00,Wunderground v.1.15,2013-03-22 04:28:00,
2013-03-21 23:29:00,65.6,60.0,29.57,SSE,158,5.0,14.0,82,0.00,,,0.00,Wunderground v.1.15,2013-03-22 04:29:00,
2013-03-21 23:34:00,65.6,60.0,29.57,South,185,5.0,14.0,82,0.00,,,0.00,Wunderground v.1.15,2013-03-22 04:34:00,
2013-03-21 23:35:00,65.6,60.0,29.57,SE,144,6.0,14.0,82,0.00,,,0.00,Wunderground v.1.15,2013-03-22 04:35:00,
2013-03-21 23:36:00,65.6,60.0,29.57,South,188,6.0,14.0,82,0.00,,,0.00,Wunderground v.1.15,2013-03-22 04:36:00,
2013-03-21 23:38:00,65.6,60.0,29.57,SSW,198,6.0,14.0,82,0.00,,,0.00,Wunderground v.1.15,2013-03-22 04:38:00,
2013-03-21 23:39:00,65.6,60.3,29.57,South,185,7.0,14.0,83,0.00,,,0.00,Wunderground v.1.15,2013-03-22 04:39:00,
2013-03-21 23:43:00,65.6,60.3,29.57,South,179,7.0,13.0,83,0.00,,,0.00,Wunderground v.1.15,2013-03-22 04:43:00,
2013-03-21 23:44:00,65.6,60.3,29.57,SE,136,7.0,13.0,83,0.00,,,0.00,Wunderground v.1.15,2013-03-22 04:44:00,
2013-03-21 23:45:00,65.5,60.2,29.57,SSE,165,7.0,13.0,83,0.00,,,0.00,Wunderground v.1.15,2013-03-22 04:45:00,
2013-03-21 23:48:00,65.5,60.2,29.57,SSE,162,7.0,13.0,83,0.00,,,0.00,Wunderground v.1.15,2013-03-22 04:48:00,
2013-03-21 23:49:00,65.5,60.2,29.57,South,182,6.0,13.0,83,0.00,,,0.00,Wunderground v.1.15,2013-03-22 04:49:00,
2013-03-21 23:53:00,65.5,60.2,29.57,SSE,154,5.0,16.0,83,0.00,,,0.00,Wunderground v.1.15,2013-03-22 04:53:00,
2013-03-21 23:56:00,65.3,60.3,29.57,East,92,5.0,16.0,84,0.00,,,0.00,Wunderground v.1.15,2013-03-22 04:56:00,
2013-03-21 23:58:00,65.3,60.3,29.57,ESE,104,6.0,16.0,84,0.00,,,0.00,Wunderground v.1.15,2013-03-22 04:58:00,
2013-03-21 23:59:00,65.3,60.3,29.57,SSW,198,6.0,16.0,84,0.00,,,0.00,Wunderground v.1.15,2013-03-22 04:59:00,